Wetterdaten: aktuell Freitag, 18.06.2021 04:46
Datum Zeit Temp. Aussen Temp. o. S. Temp +5cm Feuchte Auss Luftdruck Regen Sonnenschein Regendauer Solar Windben Empfang
18.06.2021 04:46 22,0 C 21,1 C 19,5 C 84 % 1012,4 hPa 0,0 l/m 0 min 0 min 0 W/m 3,2 km/h (1 Bft) 97,87 %
18.06.2021 04:44 22,0 C 21,1 C 19,5 C 84 % 1012,3 hPa 0,0 l/m 0 min 0 min 0 W/m 3,2 km/h (1 Bft) 97,87 %
18.06.2021 04:42 22,0 C 21,1 C 18,9 C 84 % 1012,2 hPa 0,0 l/m 0 min 0 min 0 W/m 3,2 km/h (1 Bft) 97,87 %
18.06.2021 04:40 22,0 C 21,1 C 18,9 C 84 % 1012,2 hPa 0,0 l/m 0 min 0 min 0 W/m 3,2 km/h (1 Bft) 95,74 %
18.06.2021 04:38 22,0 C 21,1 C 19,5 C 84 % 1012,1 hPa 0,0 l/m 0 min 0 min 0 W/m 3,2 km/h (1 Bft) 97,92 %
18.06.2021 04:36 22,0 C 21,1 C 19,5 C 84 % 1012,2 hPa 0,0 l/m 0 min 0 min 0 W/m 3,2 km/h (1 Bft) 95,65 %
18.06.2021 04:34 22,0 C 21,1 C 19,5 C 84 % 1012,2 hPa 0,0 l/m 0 min 0 min 0 W/m 3,2 km/h (1 Bft) 93,62 %
18.06.2021 04:32 22,0 C 21,1 C 19,5 C 84 % 1012,2 hPa 0,0 l/m 0 min 0 min 0 W/m 3,2 km/h (1 Bft) 95,74 %
18.06.2021 04:30 22,0 C 21,1 C 18,9 C 84 % 1012,2 hPa 0,0 l/m 0 min 0 min 0 W/m 3,2 km/h (1 Bft) 95,74 %
18.06.2021 04:28 22,0 C 21,1 C 18,9 C 83 % 1012,2 hPa 0,0 l/m 0 min 0 min 0 W/m 6,4 km/h (2 Bft) 95,74 %
18.06.2021 04:26 22,0 C 21,1 C 18,9 C 83 % 1012,2 hPa 0,0 l/m 0 min 0 min 0 W/m 3,2 km/h (1 Bft) 95,65 %
18.06.2021 04:24 22,1 C 21,1 C 18,9 C 83 % 1012,2 hPa 0,0 l/m 0 min 0 min 0 W/m 3,2 km/h (1 Bft) 95,74 %
18.06.2021 04:22 22,1 C 21,1 C 19,5 C 83 % 1012,2 hPa 0,0 l/m 0 min 0 min 0 W/m 3,2 km/h (1 Bft) 95,74 %
18.06.2021 04:20 22,1 C 21,1 C 19,5 C 83 % 1012,2 hPa 0,0 l/m 0 min 0 min 0 W/m 3,2 km/h (1 Bft) 93,62 %
18.06.2021 04:18 22,1 C 21,1 C 19,5 C 83 % 1012,3 hPa 0,0 l/m 0 min 0 min 0 W/m 3,2 km/h (1 Bft) 95,74 %
18.06.2021 04:16 22,2 C 21,1 C 19,5 C 83 % 1012,3 hPa 0,0 l/m 0 min 0 min 0 W/m 3,2 km/h (1 Bft) 93,62 %
18.06.2021 04:14 22,3 C 21,1 C 18,9 C 83 % 1012,3 hPa 0,0 l/m 0 min 0 min 0 W/m 3,2 km/h (1 Bft) 95,65 %
18.06.2021 04:12 22,3 C 21,1 C 19,5 C 83 % 1012,3 hPa 0,0 l/m 0 min 0 min 0 W/m 0,0 km/h (0 Bft) 95,74 %
18.06.2021 04:10 22,4 C 21,1 C 19,5 C 83 % 1012,3 hPa 0,0 l/m 0 min 0 min 0 W/m 3,2 km/h (1 Bft) 95,74 %
18.06.2021 04:08 22,4 C 21,7 C 19,5 C 83 % 1012,3 hPa 0,0 l/m 0 min 0 min 0 W/m 3,2 km/h (1 Bft) 95,74 %
18.06.2021 04:06 22,4 C 21,7 C 19,5 C 83 % 1012,3 hPa 0,0 l/m 0 min 0 min 0 W/m 0,0 km/h (0 Bft) 93,62 %
18.06.2021 04:04 22,5 C 21,7 C 19,5 C 83 % 1012,4 hPa 0,0 l/m 0 min 0 min 0 W/m 3,2 km/h (1 Bft) 93,62 %
18.06.2021 04:02 22,5 C 21,7 C 19,5 C 83 % 1012,4 hPa 0,0 l/m 0 min 0 min 0 W/m 3,2 km/h (1 Bft) 100,00 %
18.06.2021 04:00 22,5 C 21,7 C 19,5 C 83 % 1012,4 hPa 0,0 l/m 0 min 0 min 0 W/m 3,2 km/h (1 Bft) 93,62 %
18.06.2021 03:58 22,5 C 21,7 C 19,5 C 82 % 1012,5 hPa 0,0 l/m 0 min 0 min 0 W/m 3,2 km/h (1 Bft) 97,87 %
18.06.2021 03:56 22,5 C 21,7 C 20,0 C 83 % 1012,6 hPa 0,0 l/m 0 min 0 min 0 W/m 0,0 km/h (0 Bft) 95,74 %
18.06.2021 03:54 22,5 C 21,7 C 20,0 C 82 % 1012,6 hPa 0,0 l/m 0 min 0 min 0 W/m 3,2 km/h (1 Bft) 97,87 %
18.06.2021 03:52 22,5 C 21,7 C 19,5 C 82 % 1012,6 hPa 0,0 l/m 0 min 0 min 0 W/m 3,2 km/h (1 Bft) 97,87 %
18.06.2021 03:50 22,5 C 21,7 C 19,5 C 83 % 1012,6 hPa 0,0 l/m 0 min 0 min 0 W/m 3,2 km/h (1 Bft) 95,65 %
18.06.2021 03:48 22,5 C 21,7 C 19,5 C 82 % 1012,6 hPa 0,0 l/m 0 min 0 min 0 W/m 3,2 km/h (1 Bft) 93,62 %
18.06.2021 03:46 22,5 C 21,7 C 19,5 C 83 % 1012,6 hPa 0,0 l/m 0 min 0 min 0 W/m 3,2 km/h (1 Bft) 100,00 %
18.06.2021 03:44 22,5 C 21,7 C 19,5 C 83 % 1012,6 hPa 0,0 l/m 0 min 0 min 0 W/m 3,2 km/h (1 Bft) 100,00 %
18.06.2021 03:42 22,6 C 21,7 C 19,5 C 83 % 1012,6 hPa 0,0 l/m 0 min 0 min 0 W/m 0,0 km/h (0 Bft) 100,00 %
18.06.2021 03:40 22,6 C 21,7 C 19,5 C 82 % 1012,5 hPa 0,0 l/m 0 min 0 min 0 W/m 0,0 km/h (0 Bft) 100,00 %
18.06.2021 03:38 22,6 C 21,7 C 19,5 C 82 % 1012,5 hPa 0,0 l/m 0 min 0 min 0 W/m 3,2 km/h (1 Bft) 95,65 %
18.06.2021 03:36 22,6 C 21,7 C 19,5 C 82 % 1012,5 hPa 0,0 l/m 0 min 0 min 0 W/m 6,4 km/h (2 Bft) 100,00 %
18.06.2021 03:34 22,6 C 21,7 C 19,5 C 82 % 1012,4 hPa 0,0 l/m 0 min 0 min 0 W/m 9,7 km/h (2 Bft) 100,00 %
18.06.2021 03:32 22,7 C 21,7 C 19,5 C 82 % 1012,4 hPa 0,0 l/m 0 min 0 min 0 W/m 3,2 km/h (1 Bft) 100,00 %
18.06.2021 03:30 22,8 C 21,7 C 19,5 C 82 % 1012,4 hPa 0,0 l/m 0 min 0 min 0 W/m 9,7 km/h (2 Bft) 97,87 %
18.06.2021 03:28 22,8 C 21,7 C 19,5 C 82 % 1012,4 hPa 0,0 l/m 0 min 0 min 0 W/m 6,4 km/h (2 Bft) 95,74 %
18.06.2021 03:26 22,9 C 22,2 C 20,0 C 82 % 1012,5 hPa 0,0 l/m 0 min 0 min 0 W/m 6,4 km/h (2 Bft) 100,00 %
18.06.2021 03:24 22,9 C 22,2 C 20,0 C 82 % 1012,5 hPa 0,0 l/m 0 min 0 min 0 W/m 3,2 km/h (1 Bft) 97,87 %
18.06.2021 03:22 22,9 C 22,2 C 20,0 C 81 % 1012,4 hPa 0,0 l/m 0 min 0 min 0 W/m 3,2 km/h (1 Bft) 97,87 %
18.06.2021 03:20 23,0 C 22,2 C 20,0 C 81 % 1012,4 hPa 0,0 l/m 0 min 0 min 0 W/m 3,2 km/h (1 Bft) 97,87 %
18.06.2021 03:18 23,0 C 22,2 C 20,0 C 81 % 1012,4 hPa 0,0 l/m 0 min 0 min 0 W/m 6,4 km/h (2 Bft) 97,87 %
18.06.2021 03:16 23,1 C 22,2 C 20,0 C 80 % 1012,5 hPa 0,0 l/m 0 min 0 min 0 W/m 6,4 km/h (2 Bft) 97,83 %
18.06.2021 03:14 23,1 C 22,2 C 20,0 C 80 % 1012,4 hPa 0,0 l/m 0 min 0 min 0 W/m 6,4 km/h (2 Bft) 95,74 %
18.06.2021 03:12 23,1 C 22,2 C 20,0 C 80 % 1012,5 hPa 0,0 l/m 0 min 0 min 0 W/m 6,4 km/h (2 Bft) 97,87 %
18.06.2021 03:10 23,2 C 22,2 C 20,0 C 80 % 1012,5 hPa 0,0 l/m 0 min 0 min 0 W/m 6,4 km/h (2 Bft) 95,74 %
18.06.2021 03:08 23,2 C 22,2 C 20,0 C 80 % 1012,5 hPa 0,0 l/m 0 min 0 min 0 W/m 6,4 km/h (2 Bft) 97,87 %
18.06.2021 03:06 23,3 C 22,2 C 20,0 C 80 % 1012,6 hPa 0,0 l/m 0 min 0 min 0 W/m 6,4 km/h (2 Bft) 97,87 %
18.06.2021 03:04 23,3 C 22,2 C 20,0 C 80 % 1012,6 hPa 0,0 l/m 0 min 0 min 0 W/m 6,4 km/h (2 Bft) 97,83 %
18.06.2021 03:02 23,3 C 22,2 C 20,0 C 80 % 1012,6 hPa 0,0 l/m 0 min 0 min 0 W/m 9,7 km/h (2 Bft) 95,74 %
18.06.2021 03:00 23,4 C 22,2 C 20,0 C 80 % 1012,6 hPa 0,0 l/m 0 min 0 min 0 W/m 6,4 km/h (2 Bft) 97,87 %
18.06.2021 02:58 23,4 C 22,2 C 20,0 C 80 % 1012,7 hPa 0,0 l/m 0 min 0 min 0 W/m 6,4 km/h (2 Bft) 97,87 %
18.06.2021 02:56 23,5 C 22,2 C 20,0 C 79 % 1012,7 hPa 0,0 l/m 0 min 0 min 0 W/m 3,2 km/h (1 Bft) 95,74 %
18.06.2021 02:54 23,5 C 22,2 C 20,0 C 79 % 1012,7 hPa 0,0 l/m 0 min 0 min 0 W/m 6,4 km/h (2 Bft) 97,87 %
18.06.2021 02:52 23,5 C 22,8 C 20,6 C 79 % 1012,6 hPa 0,0 l/m 0 min 0 min 0 W/m 6,4 km/h (2 Bft) 95,65 %
18.06.2021 02:50 23,6 C 22,8 C 20,6 C 79 % 1012,6 hPa 0,0 l/m 0 min 0 min 0 W/m 3,2 km/h (1 Bft) 97,87 %
18.06.2021 02:48 23,6 C 22,8 C 20,6 C 79 % 1012,7 hPa 0,0 l/m 0 min 0 min 0 W/m 6,4 km/h (2 Bft) 97,87 %
18.06.2021 02:46 23,6 C 22,8 C 20,6 C 79 % 1012,7 hPa 0,0 l/m 0 min 0 min 0 W/m 6,4 km/h (2 Bft) 97,87 %
18.06.2021 02:44 23,7 C 22,8 C 20,6 C 79 % 1012,8 hPa 0,0 l/m 0 min 0 min 0 W/m 6,4 km/h (2 Bft) 97,87 %
18.06.2021 02:42 23,8 C 22,8 C 20,6 C 79 % 1012,8 hPa 0,0 l/m 0 min 0 min 0 W/m 6,4 km/h (2 Bft) 97,87 %
18.06.2021 02:40 23,8 C 22,8 C 20,6 C 79 % 1012,8 hPa 0,0 l/m 0 min 0 min 0 W/m 6,4 km/h (2 Bft) 97,83 %
18.06.2021 02:38 23,8 C 22,8 C 20,6 C 79 % 1012,9 hPa 0,0 l/m 0 min 0 min 0 W/m 3,2 km/h (1 Bft) 97,87 %
18.06.2021 02:36 23,9 C 22,8 C 20,6 C 78 % 1012,9 hPa 0,0 l/m 0 min 0 min 0 W/m 6,4 km/h (2 Bft) 97,87 %
18.06.2021 02:34 23,9 C 22,8 C 20,6 C 78 % 1012,9 hPa 0,0 l/m 0 min 0 min 0 W/m 9,7 km/h (2 Bft) 95,74 %
18.06.2021 02:32 23,9 C 22,8 C 20,6 C 78 % 1012,9 hPa 0,0 l/m 0 min 0 min 0 W/m 6,4 km/h (2 Bft) 97,87 %
18.06.2021 02:30 23,9 C 22,8 C 20,6 C 78 % 1013,0 hPa 0,0 l/m 0 min 0 min 0 W/m 9,7 km/h (2 Bft) 97,87 %
18.06.2021 02:28 23,9 C 22,8 C 20,6 C 78 % 1013,0 hPa 0,0 l/m 0 min 0 min 0 W/m 9,7 km/h (2 Bft) 97,83 %
18.06.2021 02:26 24,0 C 22,8 C 20,6 C 78 % 1013,0 hPa 0,0 l/m 0 min 0 min 0 W/m 6,4 km/h (2 Bft) 97,87 %
18.06.2021 02:24 24,0 C 23,3 C 20,6 C 78 % 1013,0 hPa 0,0 l/m 0 min 0 min 0 W/m 3,2 km/h (1 Bft) 100,00 %
18.06.2021 02:22 24,0 C 23,3 C 21,1 C 77 % 1013,0 hPa 0,0 l/m 0 min 0 min 0 W/m 9,7 km/h (2 Bft) 100,00 %
18.06.2021 02:20 24,0 C 23,3 C 21,1 C 77 % 1013,0 hPa 0,0 l/m 0 min 0 min 0 W/m 6,4 km/h (2 Bft) 100,00 %
18.06.2021 02:18 24,1 C 23,3 C 21,1 C 77 % 1013,1 hPa 0,0 l/m 0 min 0 min 0 W/m 9,7 km/h (2 Bft) 100,00 %
18.06.2021 02:16 24,1 C 23,3 C 21,1 C 78 % 1013,1 hPa 0,0 l/m 0 min 0 min 0 W/m 9,7 km/h (2 Bft) 100,00 %
18.06.2021 02:14 24,1 C 23,3 C 21,1 C 77 % 1013,1 hPa 0,0 l/m 0 min 0 min 0 W/m 3,2 km/h (1 Bft) 100,00 %
18.06.2021 02:12 24,2 C 23,3 C 21,1 C 77 % 1013,1 hPa 0,0 l/m 0 min 0 min 0 W/m 9,7 km/h (2 Bft) 100,00 %
18.06.2021 02:10 24,2 C 23,3 C 21,1 C 77 % 1013,1 hPa 0,0 l/m 0 min 0 min 0 W/m 6,4 km/h (2 Bft) 100,00 %
18.06.2021 02:08 24,3 C 23,3 C 21,1 C 77 % 1013,1 hPa 0,0 l/m 0 min 0 min 0 W/m 6,4 km/h (2 Bft) 100,00 %
18.06.2021 02:06 24,3 C 23,3 C 21,1 C 77 % 1013,1 hPa 0,0 l/m 0 min 0 min 0 W/m 6,4 km/h (2 Bft) 100,00 %
18.06.2021 02:04 24,3 C 23,3 C 21,1 C 77 % 1013,1 hPa 0,0 l/m 0 min 0 min 0 W/m 6,4 km/h (2 Bft) 100,00 %
18.06.2021 02:02 24,3 C 23,3 C 21,1 C 77 % 1013,1 hPa 0,0 l/m 0 min 0 min 0 W/m 6,4 km/h (2 Bft) 100,00 %
18.06.2021 02:00 24,4 C 23,3 C 21,1 C 77 % 1013,2 hPa 0,0 l/m 0 min 0 min 0 W/m 9,7 km/h (2 Bft) 97,87 %
18.06.2021 01:58 24,4 C 23,3 C 21,1 C 77 % 1013,2 hPa 0,0 l/m 0 min 0 min 0 W/m 6,4 km/h (2 Bft) 95,74 %
18.06.2021 01:56 24,4 C 23,3 C 21,1 C 77 % 1013,2 hPa 0,0 l/m 0 min 0 min 0 W/m 9,7 km/h (2 Bft) 97,87 %
18.06.2021 01:54 24,4 C 23,3 C 21,1 C 77 % 1013,2 hPa 0,0 l/m 0 min 0 min 0 W/m 9,7 km/h (2 Bft) 97,83 %
18.06.2021 01:52 24,4 C 23,3 C 21,1 C 77 % 1013,2 hPa 0,0 l/m 0 min 0 min 0 W/m 6,4 km/h (2 Bft) 97,87 %
18.06.2021 01:50 24,5 C 23,3 C 21,1 C 77 % 1013,2 hPa 0,0 l/m 0 min 0 min 0 W/m 9,7 km/h (2 Bft) 97,87 %
18.06.2021 01:48 24,5 C 23,3 C 21,1 C 77 % 1013,2 hPa 0,0 l/m 0 min 0 min 0 W/m 9,7 km/h (2 Bft) 97,87 %
18.06.2021 01:46 24,5 C 23,3 C 21,1 C 77 % 1013,2 hPa 0,0 l/m 0 min 0 min 0 W/m 9,7 km/h (2 Bft) 93,62 %
18.06.2021 01:44 24,6 C 23,3 C 21,1 C 77 % 1013,2 hPa 0,0 l/m 0 min 0 min 0 W/m 6,4 km/h (2 Bft) 97,87 %
18.06.2021 01:42 24,6 C 23,3 C 21,7 C 77 % 1013,1 hPa 0,0 l/m 0 min 0 min 0 W/m 16,1 km/h (3 Bft) 97,83 %
18.06.2021 01:40 24,6 C 23,3 C 21,7 C 78 % 1013,2 hPa 0,0 l/m 0 min 0 min 0 W/m 9,7 km/h (2 Bft) 95,74 %
18.06.2021 01:38 24,7 C 23,3 C 21,7 C 77 % 1013,2 hPa 0,0 l/m 0 min 0 min 0 W/m 9,7 km/h (2 Bft) 97,87 %
18.06.2021 01:36 24,8 C 23,9 C 21,7 C 77 % 1013,2 hPa 0,0 l/m 0 min 0 min 0 W/m 6,4 km/h (2 Bft) 97,87 %
18.06.2021 01:34 24,8 C 23,9 C 21,7 C 77 % 1013,2 hPa 0,0 l/m 0 min 0 min 0 W/m 12,9 km/h (3 Bft) 93,62 %
18.06.2021 01:32 24,9 C 23,9 C 21,7 C 77 % 1013,1 hPa 0,0 l/m 0 min 0 min 0 W/m 9,7 km/h (2 Bft) 95,74 %
18.06.2021 01:30 24,9 C 23,9 C 21,7 C 77 % 1013,2 hPa 0,0 l/m 0 min 0 min 0 W/m 12,9 km/h (3 Bft) 95,65 %
18.06.2021 01:28 24,9 C 23,9 C 21,7 C 77 % 1013,2 hPa 0,0 l/m 0 min 0 min 0 W/m 6,4 km/h (2 Bft) 95,74 %
18.06.2021 01:26 25,0 C 23,9 C 21,7 C 77 % 1013,2 hPa 0,0 l/m 0 min 0 min 0 W/m 6,4 km/h (2 Bft) 95,74 %
18.06.2021 01:24 25,0 C 23,9 C 21,7 C 77 % 1013,2 hPa 0,0 l/m 0 min 0 min 0 W/m 12,9 km/h (3 Bft) 93,62 %
18.06.2021 01:22 25,1 C 23,9 C 21,7 C 77 % 1013,2 hPa 0,0 l/m 0 min 0 min 0 W/m 9,7 km/h (2 Bft) 95,74 %
18.06.2021 01:20 25,1 C 23,9 C 21,7 C 77 % 1013,2 hPa 0,0 l/m 0 min 0 min 0 W/m 16,1 km/h (3 Bft) 95,65 %
18.06.2021 01:18 25,1 C 23,9 C 21,7 C 76 % 1013,2 hPa 0,0 l/m 0 min 0 min 0 W/m 16,1 km/h (3 Bft) 93,62 %
18.06.2021 01:16 25,2 C 23,9 C 21,7 C 76 % 1013,1 hPa 0,0 l/m 0 min 0 min 0 W/m 12,9 km/h (3 Bft) 97,87 %
18.06.2021 01:14 25,3 C 23,9 C 21,7 C 76 % 1013,2 hPa 0,0 l/m 0 min 0 min 0 W/m 6,4 km/h (2 Bft) 97,87 %
18.06.2021 01:12 25,3 C 23,9 C 21,7 C 76 % 1013,2 hPa 0,0 l/m 0 min 0 min 0 W/m 6,4 km/h (2 Bft) 97,87 %
18.06.2021 01:10 25,3 C 23,9 C 22,3 C 76 % 1013,2 hPa 0,0 l/m 0 min 0 min 0 W/m 9,7 km/h (2 Bft) 97,87 %
18.06.2021 01:08 25,3 C 24,4 C 22,3 C 76 % 1013,1 hPa 0,0 l/m 0 min 0 min 0 W/m 12,9 km/h (3 Bft) 97,83 %
18.06.2021 01:06 25,4 C 24,4 C 22,3 C 76 % 1013,2 hPa 0,0 l/m 0 min 0 min 0 W/m 9,7 km/h (2 Bft) 97,87 %
18.06.2021 01:04 25,4 C 24,4 C 22,3 C 76 % 1013,2 hPa 0,0 l/m 0 min 0 min 0 W/m 19,3 km/h (3 Bft) 97,87 %
18.06.2021 01:02 25,4 C 24,4 C 22,3 C 75 % 1013,2 hPa 0,0 l/m 0 min 0 min 0 W/m 16,1 km/h (3 Bft) 95,74 %
18.06.2021 01:00 25,5 C 24,4 C 22,3 C 75 % 1013,1 hPa 0,0 l/m 0 min 0 min 0 W/m 9,7 km/h (2 Bft) 97,87 %
18.06.2021 00:58 25,5 C 24,4 C 22,3 C 75 % 1013,1 hPa 0,0 l/m 0 min 0 min 0 W/m 9,7 km/h (2 Bft) 97,87 %
18.06.2021 00:56 25,6 C 24,4 C 22,3 C 75 % 1013,1 hPa 0,0 l/m 0 min 0 min 0 W/m 9,7 km/h (2 Bft) 95,65 %
18.06.2021 00:54 25,6 C 24,4 C 22,3 C 75 % 1013,1 hPa 0,0 l/m 0 min 0 min 0 W/m 9,7 km/h (2 Bft) 97,87 %
18.06.2021 00:52 25,6 C 24,4 C 22,3 C 75 % 1013,1 hPa 0,0 l/m 0 min 0 min 0 W/m 16,1 km/h (3 Bft) 97,87 %
18.06.2021 00:50 25,6 C 24,4 C 22,3 C 75 % 1013,1 hPa 0,0 l/m 0 min 0 min 0 W/m 9,7 km/h (2 Bft) 97,87 %
18.06.2021 00:48 25,7 C 24,4 C 22,3 C 75 % 1013,1 hPa 0,0 l/m 0 min 0 min 0 W/m 16,1 km/h (3 Bft) 97,87 %
18.06.2021 00:46 25,8 C 24,4 C 22,3 C 75 % 1013,1 hPa 0,0 l/m 0 min 0 min 0 W/m 9,7 km/h (2 Bft) 97,87 %
18.06.2021 00:44 25,8 C 24,4 C 22,3 C 74 % 1013,1 hPa 0,0 l/m 0 min 0 min 0 W/m 6,4 km/h (2 Bft) 100,00 %
18.06.2021 00:42 25,8 C 24,4 C 22,3 C 74 % 1013,1 hPa 0,0 l/m 0 min 0 min 0 W/m 3,2 km/h (1 Bft) 95,74 %
18.06.2021 00:40 25,9 C 24,4 C 22,3 C 74 % 1013,1 hPa 0,0 l/m 0 min 0 min 0 W/m 12,9 km/h (3 Bft) 100,00 %
18.06.2021 00:38 25,9 C 25,0 C 22,8 C 74 % 1013,1 hPa 0,0 l/m 0 min 0 min 0 W/m 9,7 km/h (2 Bft) 100,00 %
18.06.2021 00:36 25,9 C 25,0 C 22,8 C 74 % 1013,1 hPa 0,0 l/m 0 min 0 min 0 W/m 6,4 km/h (2 Bft) 100,00 %
18.06.2021 00:34 25,9 C 25,0 C 22,8 C 73 % 1013,1 hPa 0,0 l/m 0 min 0 min 0 W/m 9,7 km/h (2 Bft) 100,00 %
18.06.2021 00:32 26,0 C 25,0 C 22,8 C 73 % 1013,1 hPa 0,0 l/m 0 min 0 min 0 W/m 9,7 km/h (2 Bft) 95,65 %
18.06.2021 00:30 26,0 C 25,0 C 22,8 C 73 % 1013,1 hPa 0,0 l/m 0 min 0 min 0 W/m 6,4 km/h (2 Bft) 100,00 %
18.06.2021 00:28 26,0 C 25,0 C 22,8 C 73 % 1013,0 hPa 0,0 l/m 0 min 0 min 0 W/m 9,7 km/h (2 Bft) 100,00 %
18.06.2021 00:26 26,0 C 25,0 C 22,8 C 73 % 1013,0 hPa 0,0 l/m 0 min 0 min 0 W/m 3,2 km/h (1 Bft) 97,87 %
18.06.2021 00:24 26,0 C 25,0 C 22,8 C 73 % 1013,0 hPa 0,0 l/m 0 min 0 min 0 W/m 6,4 km/h (2 Bft) 97,87 %
18.06.2021 00:22 26,1 C 25,0 C 22,8 C 73 % 1013,0 hPa 0,0 l/m 0 min 0 min 0 W/m 16,1 km/h (3 Bft) 100,00 %
18.06.2021 00:20 26,1 C 25,0 C 22,8 C 73 % 1013,0 hPa 0,0 l/m 0 min 0 min 0 W/m 16,1 km/h (3 Bft) 100,00 %
18.06.2021 00:18 26,1 C 25,0 C 22,8 C 73 % 1013,0 hPa 0,0 l/m 0 min 0 min 0 W/m 9,7 km/h (2 Bft) 100,00 %
18.06.2021 00:16 26,1 C 25,0 C 22,8 C 72 % 1013,0 hPa 0,0 l/m 0 min 0 min 0 W/m 12,9 km/h (3 Bft) 100,00 %
18.06.2021 00:14 26,1 C 25,0 C 22,8 C 72 % 1013,0 hPa 0,0 l/m 0 min 0 min 0 W/m 19,3 km/h (3 Bft) 97,87 %
18.06.2021 00:12 26,1 C 25,0 C 22,8 C 73 % 1013,0 hPa 0,0 l/m 0 min 0 min 0 W/m 6,4 km/h (2 Bft) 100,00 %
18.06.2021 00:10 26,2 C 25,0 C 22,8 C 72 % 1013,0 hPa 0,0 l/m 0 min 0 min 0 W/m 6,4 km/h (2 Bft) 97,87 %
18.06.2021 00:08 26,2 C 25,0 C 22,8 C 72 % 1013,0 hPa 0,0 l/m 0 min 0 min 0 W/m 12,9 km/h (3 Bft) 100,00 %
18.06.2021 00:04 26,3 C 25,0 C 22,8 C 72 % 1013,1 hPa 0,0 l/m 0 min 0 min 0 W/m 9,7 km/h (2 Bft) 95,74 %
18.06.2021 00:02 26,3 C 25,0 C 22,8 C 72 % 1013,0 hPa 0,0 l/m 0 min 0 min 0 W/m 9,7 km/h (2 Bft) 100,00 %
18.06.2021 00:00 26,3 C 25,0 C 22,8 C 72 % 1013,0 hPa 0,0 l/m 0 min 0 min 0 W/m 9,7 km/h (2 Bft) 100,00 %
17.06.2021 23:58 26,4 C 25,0 C 22,8 C 72 % 1013,0 hPa 0,0 l/m 0 min 0 min 0 W/m 6,4 km/h (2 Bft) 97,87 %
17.06.2021 23:56 26,4 C 25,0 C 22,8 C 72 % 1013,0 hPa 0,0 l/m 0 min 0 min 0 W/m 6,4 km/h (2 Bft) 97,83 %
17.06.2021 23:54 26,4 C 25,0 C 22,8 C 72 % 1012,9 hPa 0,0 l/m 0 min 0 min 0 W/m 6,4 km/h (2 Bft) 97,87 %
17.06.2021 23:52 26,4 C 25,0 C 22,8 C 71 % 1012,9 hPa 0,0 l/m 0 min 0 min 0 W/m 12,9 km/h (3 Bft) 97,87 %
17.06.2021 23:50 26,5 C 25,0 C 22,8 C 72 % 1012,9 hPa 0,0 l/m 0 min 0 min 0 W/m 6,4 km/h (2 Bft) 97,87 %
17.06.2021 23:48 26,5 C 25,0 C 22,8 C 71 % 1012,8 hPa 0,0 l/m 0 min 0 min 0 W/m 6,4 km/h (2 Bft) 97,87 %
17.06.2021 23:46 26,5 C 25,0 C 22,8 C 71 % 1012,9 hPa 0,0 l/m 0 min 0 min 0 W/m 6,4 km/h (2 Bft) 97,87 %
17.06.2021 23:44 26,5 C 25,0 C 23,4 C 71 % 1012,8 hPa 0,0 l/m 0 min 0 min 0 W/m 6,4 km/h (2 Bft) 97,83 %
17.06.2021 23:42 26,5 C 25,6 C 23,4 C 71 % 1012,8 hPa 0,0 l/m 0 min 0 min 0 W/m 6,4 km/h (2 Bft) 97,87 %
17.06.2021 23:40 26,6 C 25,6 C 23,4 C 71 % 1012,9 hPa 0,0 l/m 0 min 0 min 0 W/m 6,4 km/h (2 Bft) 97,87 %
17.06.2021 23:38 26,6 C 25,6 C 23,4 C 71 % 1012,8 hPa 0,0 l/m 0 min 0 min 0 W/m 9,7 km/h (2 Bft) 97,87 %
17.06.2021 23:36 26,6 C 25,6 C 23,4 C 71 % 1012,8 hPa 0,0 l/m 0 min 0 min 0 W/m 6,4 km/h (2 Bft) 97,87 %
17.06.2021 23:34 26,7 C 25,6 C 23,4 C 71 % 1012,8 hPa 0,0 l/m 0 min 0 min 0 W/m 6,4 km/h (2 Bft) 97,87 %
17.06.2021 23:32 26,8 C 25,6 C 23,4 C 70 % 1012,8 hPa 0,0 l/m 0 min 0 min 0 W/m 9,7 km/h (2 Bft) 97,83 %
17.06.2021 23:30 26,8 C 25,6 C 23,4 C 70 % 1012,7 hPa 0,0 l/m 0 min 0 min 0 W/m 9,7 km/h (2 Bft) 93,62 %
17.06.2021 23:28 26,8 C 25,6 C 23,4 C 70 % 1012,7 hPa 0,0 l/m 0 min 0 min 0 W/m 3,2 km/h (1 Bft) 97,87 %
17.06.2021 23:26 26,9 C 25,6 C 23,4 C 70 % 1012,7 hPa 0,0 l/m 0 min 0 min 0 W/m 6,4 km/h (2 Bft) 91,49 %
17.06.2021 23:24 26,9 C 25,6 C 23,4 C 70 % 1012,7 hPa 0,0 l/m 0 min 0 min 0 W/m 9,7 km/h (2 Bft) 95,74 %
17.06.2021 23:22 26,9 C 25,6 C 23,4 C 70 % 1012,6 hPa 0,0 l/m 0 min 0 min 0 W/m 9,7 km/h (2 Bft) 95,74 %
17.06.2021 23:20 27,0 C 25,6 C 23,4 C 70 % 1012,6 hPa 0,0 l/m 0 min 0 min 0 W/m 9,7 km/h (2 Bft) 95,74 %
17.06.2021 23:18 27,0 C 25,6 C 23,4 C 69 % 1012,6 hPa 0,0 l/m 0 min 0 min 0 W/m 6,4 km/h (2 Bft) 93,62 %
17.06.2021 23:16 27,0 C 25,6 C 23,4 C 69 % 1012,6 hPa 0,0 l/m 0 min 0 min 0 W/m 6,4 km/h (2 Bft) 95,74 %
17.06.2021 23:14 27,0 C 25,6 C 23,4 C 69 % 1012,6 hPa 0,0 l/m 0 min 0 min 0 W/m 3,2 km/h (1 Bft) 95,74 %
17.06.2021 23:12 27,0 C 25,6 C 23,4 C 69 % 1012,6 hPa 0,0 l/m 0 min 0 min 0 W/m 9,7 km/h (2 Bft) 95,74 %
17.06.2021 23:10 27,0 C 26,1 C 23,9 C 69 % 1012,5 hPa 0,0 l/m 0 min 0 min 0 W/m 6,4 km/h (2 Bft) 95,74 %
17.06.2021 23:08 27,0 C 26,1 C 23,9 C 69 % 1012,6 hPa 0,0 l/m 0 min 0 min 0 W/m 6,4 km/h (2 Bft) 95,65 %
17.06.2021 23:06 27,0 C 26,1 C 23,9 C 69 % 1012,6 hPa 0,0 l/m 0 min 0 min 0 W/m 12,9 km/h (3 Bft) 93,62 %
17.06.2021 23:04 27,0 C 26,1 C 23,9 C 69 % 1012,5 hPa 0,0 l/m 0 min 0 min 0 W/m 12,9 km/h (3 Bft) 97,87 %
17.06.2021 23:02 27,0 C 26,1 C 23,9 C 69 % 1012,6 hPa 0,0 l/m 0 min 0 min 0 W/m 9,7 km/h (2 Bft) 91,49 %
17.06.2021 23:00 27,1 C 26,1 C 23,9 C 69 % 1012,5 hPa 0,0 l/m 0 min 0 min 0 W/m 9,7 km/h (2 Bft) 97,87 %
17.06.2021 22:58 27,1 C 26,1 C 23,9 C 68 % 1012,5 hPa 0,0 l/m 0 min 0 min 0 W/m 12,9 km/h (3 Bft) 97,87 %
17.06.2021 22:56 27,1 C 26,1 C 23,9 C 68 % 1012,5 hPa 0,0 l/m 0 min 0 min 0 W/m 12,9 km/h (3 Bft) 97,83 %
17.06.2021 22:54 27,1 C 26,1 C 23,9 C 68 % 1012,5 hPa 0,0 l/m 0 min 0 min 0 W/m 6,4 km/h (2 Bft) 95,74 %
17.06.2021 22:52 27,1 C 26,1 C 23,9 C 68 % 1012,5 hPa 0,0 l/m 0 min 0 min 0 W/m 9,7 km/h (2 Bft) 95,74 %
17.06.2021 22:50 27,2 C 26,1 C 23,9 C 67 % 1012,5 hPa 0,0 l/m 0 min 0 min 0 W/m 9,7 km/h (2 Bft) 97,87 %
17.06.2021 22:48 27,2 C 26,1 C 23,9 C 67 % 1012,4 hPa 0,0 l/m 0 min 0 min 0 W/m 16,1 km/h (3 Bft) 97,87 %
17.06.2021 22:46 27,3 C 26,1 C 23,9 C 67 % 1012,4 hPa 0,0 l/m 0 min 0 min 0 W/m 12,9 km/h (3 Bft) 97,87 %
17.06.2021 22:44 27,3 C 26,1 C 23,4 C 67 % 1012,4 hPa 0,0 l/m 0 min 0 min 0 W/m 6,4 km/h (2 Bft) 95,65 %
17.06.2021 22:42 27,4 C 26,1 C 23,4 C 66 % 1012,4 hPa 0,0 l/m 0 min 0 min 0 W/m 6,4 km/h (2 Bft) 97,87 %
17.06.2021 22:40 27,4 C 26,1 C 23,4 C 66 % 1012,4 hPa 0,0 l/m 0 min 0 min 0 W/m 6,4 km/h (2 Bft) 100,00 %
17.06.2021 22:38 27,5 C 26,1 C 23,9 C 65 % 1012,3 hPa 0,0 l/m 0 min 0 min 0 W/m 12,9 km/h (3 Bft) 97,87 %
17.06.2021 22:36 27,6 C 26,1 C 23,9 C 66 % 1012,4 hPa 0,0 l/m 0 min 0 min 0 W/m 9,7 km/h (2 Bft) 100,00 %
17.06.2021 22:34 27,6 C 26,1 C 23,9 C 66 % 1012,3 hPa 0,0 l/m 0 min 0 min 0 W/m 3,2 km/h (1 Bft) 100,00 %
17.06.2021 22:32 27,7 C 26,1 C 23,9 C 65 % 1012,4 hPa 0,0 l/m 0 min 0 min 0 W/m 6,4 km/h (2 Bft) 100,00 %
17.06.2021 22:30 27,8 C 26,1 C 23,9 C 65 % 1012,4 hPa 0,0 l/m 0 min 0 min 0 W/m 6,4 km/h (2 Bft) 100,00 %
17.06.2021 22:28 27,8 C 26,1 C 23,9 C 65 % 1012,3 hPa 0,0 l/m 0 min 0 min 0 W/m 6,4 km/h (2 Bft) 100,00 %
17.06.2021 22:26 27,9 C 26,1 C 23,9 C 66 % 1012,3 hPa 0,0 l/m 0 min 0 min 0 W/m 3,2 km/h (1 Bft) 97,87 %
17.06.2021 22:24 27,9 C 26,1 C 23,9 C 66 % 1012,3 hPa 0,0 l/m 0 min 0 min 0 W/m 3,2 km/h (1 Bft) 100,00 %
17.06.2021 22:22 27,9 C 26,1 C 23,9 C 66 % 1012,2 hPa 0,0 l/m 0 min 0 min 0 W/m 0,0 km/h (0 Bft) 97,87 %
17.06.2021 22:20 28,0 C 26,1 C 23,9 C 66 % 1012,2 hPa 0,0 l/m 0 min 0 min 0 W/m 3,2 km/h (1 Bft) 97,83 %
17.06.2021 22:18 28,0 C 26,1 C 23,9 C 65 % 1012,2 hPa 0,0 l/m 0 min 0 min 0 W/m 0,0 km/h (0 Bft) 97,87 %
17.06.2021 22:16 28,0 C 26,1 C 23,9 C 64 % 1012,2 hPa 0,0 l/m 0 min 0 min 0 W/m 0,0 km/h (0 Bft) 97,87 %
17.06.2021 22:14 28,1 C 26,1 C 23,9 C 64 % 1012,2 hPa 0,0 l/m 0 min 0 min 0 W/m 3,2 km/h (1 Bft) 95,74 %
17.06.2021 22:12 28,1 C 26,1 C 23,9 C 63 % 1012,1 hPa 0,0 l/m 0 min 0 min 0 W/m 3,2 km/h (1 Bft) 95,74 %
17.06.2021 22:10 28,3 C 26,7 C 23,9 C 63 % 1012,1 hPa 0,0 l/m 0 min 0 min 0 W/m 3,2 km/h (1 Bft) 91,49 %
17.06.2021 22:08 28,3 C 26,7 C 24,5 C 63 % 1012,0 hPa 0,0 l/m 0 min 0 min 0 W/m 3,2 km/h (1 Bft) 97,83 %
17.06.2021 22:06 28,4 C 26,7 C 24,5 C 62 % 1012,0 hPa 0,0 l/m 0 min 0 min 0 W/m 0,0 km/h (0 Bft) 97,87 %
17.06.2021 22:04 28,5 C 26,7 C 24,5 C 62 % 1012,0 hPa 0,0 l/m 0 min 0 min 0 W/m 3,2 km/h (1 Bft) 97,87 %
17.06.2021 22:02 28,5 C 26,7 C 24,5 C 62 % 1012,0 hPa 0,0 l/m 0 min 0 min 0 W/m 0,0 km/h (0 Bft) 97,87 %
17.06.2021 22:00 28,6 C 26,7 C 24,5 C 62 % 1012,0 hPa 0,0 l/m 0 min 0 min 0 W/m 3,2 km/h (1 Bft) 97,87 %
17.06.2021 21:58 28,7 C 26,7 C 24,5 C 62 % 1012,0 hPa 0,0 l/m 0 min 0 min 0 W/m 3,2 km/h (1 Bft) 97,87 %
17.06.2021 21:56 28,7 C 26,7 C 24,5 C 62 % 1011,9 hPa 0,0 l/m 0 min 0 min 0 W/m 0,0 km/h (0 Bft) 97,83 %
17.06.2021 21:54 28,8 C 26,7 C 24,5 C 62 % 1011,9 hPa 0,0 l/m 0 min 0 min 0 W/m 0,0 km/h (0 Bft) 97,87 %
17.06.2021 21:52 28,8 C 26,7 C 24,5 C 62 % 1011,9 hPa 0,0 l/m 0 min 0 min 0 W/m 3,2 km/h (1 Bft) 98,18 %
17.06.2021 21:50 28,9 C 26,7 C 24,5 C 63 % 1011,9 hPa 0,0 l/m 0 min 0 min 0 W/m 3,2 km/h (1 Bft) 97,83 %
17.06.2021 21:48 28,9 C 27,2 C 24,5 C 61 % 1011,9 hPa 0,0 l/m 0 min 0 min 0 W/m 0,0 km/h (0 Bft) 97,87 %
17.06.2021 21:46 28,9 C 27,2 C 24,5 C 61 % 1011,8 hPa 0,0 l/m 0 min 0 min 0 W/m 0,0 km/h (0 Bft) 95,74 %
17.06.2021 21:44 29,0 C 27,2 C 25,0 C 60 % 1011,8 hPa 0,0 l/m 0 min 0 min 4 W/m 0,0 km/h (0 Bft) 97,87 %
17.06.2021 21:42 29,0 C 27,2 C 25,0 C 60 % 1011,7 hPa 0,0 l/m 0 min 0 min 5 W/m 0,0 km/h (0 Bft) 95,83 %
17.06.2021 21:40 29,1 C 27,2 C 25,0 C 60 % 1011,8 hPa 0,0 l/m 0 min 0 min 5 W/m 3,2 km/h (1 Bft) 97,87 %
17.06.2021 21:38 29,1 C 27,2 C 25,0 C 60 % 1011,7 hPa 0,0 l/m 0 min 0 min 6 W/m 0,0 km/h (0 Bft) 97,87 %
17.06.2021 21:36 29,2 C 27,2 C 25,0 C 59 % 1011,6 hPa 0,0 l/m 0 min 0 min 7 W/m 3,2 km/h (1 Bft) 97,37 %
17.06.2021 21:34 29,3 C 27,2 C 25,0 C 59 % 1011,6 hPa 0,0 l/m 0 min 0 min 7 W/m 3,2 km/h (1 Bft) 97,83 %
17.06.2021 21:32 29,3 C 27,2 C 25,0 C 60 % 1011,6 hPa 0,0 l/m 0 min 0 min 9 W/m 3,2 km/h (1 Bft) 97,87 %
17.06.2021 21:30 29,3 C 27,2 C 25,0 C 59 % 1011,6 hPa 0,0 l/m 0 min 0 min 9 W/m 3,2 km/h (1 Bft) 97,87 %
17.06.2021 21:28 29,4 C 27,8 C 25,0 C 59 % 1011,6 hPa 0,0 l/m 0 min 0 min 9 W/m 9,7 km/h (2 Bft) 97,87 %
17.06.2021 21:26 29,4 C 27,8 C 25,0 C 60 % 1011,6 hPa 0,0 l/m 0 min 0 min 11 W/m 3,2 km/h (1 Bft) 97,87 %
17.06.2021 21:24 29,5 C 27,8 C 25,0 C 61 % 1011,6 hPa 0,0 l/m 0 min 0 min 11 W/m 3,2 km/h (1 Bft) 100,00 %
17.06.2021 21:22 29,5 C 27,8 C 25,6 C 60 % 1011,6 hPa 0,0 l/m 0 min 0 min 12 W/m 3,2 km/h (1 Bft) 97,83 %
17.06.2021 21:20 29,5 C 27,8 C 25,6 C 60 % 1011,6 hPa 0,0 l/m 0 min 0 min 12 W/m 3,2 km/h (1 Bft) 100,00 %
17.06.2021 21:18 29,6 C 27,8 C 25,6 C 59 % 1011,5 hPa 0,0 l/m 0 min 0 min 13 W/m 0,0 km/h (0 Bft) 97,87 %
17.06.2021 21:16 29,6 C 28,3 C 25,6 C 59 % 1011,5 hPa 0,0 l/m 0 min 0 min 14 W/m 3,2 km/h (1 Bft) 100,00 %
17.06.2021 21:14 29,8 C 28,3 C 25,6 C 58 % 1011,5 hPa 0,0 l/m 0 min 0 min 16 W/m 3,2 km/h (1 Bft) 100,00 %
17.06.2021 21:12 29,8 C 28,3 C 26,1 C 58 % 1011,5 hPa 0,0 l/m 0 min 0 min 18 W/m 3,2 km/h (1 Bft) 100,00 %
17.06.2021 21:10 29,8 C 28,3 C 26,1 C 58 % 1011,4 hPa 0,0 l/m 0 min 0 min 20 W/m 3,2 km/h (1 Bft) 97,83 %
17.06.2021 21:08 29,9 C 28,3 C 26,1 C 58 % 1011,4 hPa 0,0 l/m 0 min 0 min 23 W/m 3,2 km/h (1 Bft) 95,74 %
17.06.2021 21:06 30,0 C 28,3 C 26,1 C 58 % 1011,4 hPa 0,0 l/m 0 min 0 min 25 W/m 3,2 km/h (1 Bft) 97,87 %
17.06.2021 21:04 30,1 C 28,3 C 26,1 C 58 % 1011,3 hPa 0,0 l/m 0 min 0 min 26 W/m 6,4 km/h (2 Bft) 100,00 %
17.06.2021 21:02 30,1 C 28,9 C 26,1 C 58 % 1011,4 hPa 0,0 l/m 0 min 0 min 26 W/m 9,7 km/h (2 Bft) 100,00 %
17.06.2021 21:00 30,3 C 28,9 C 26,1 C 58 % 1011,3 hPa 0,0 l/m 0 min 0 min 26 W/m 6,4 km/h (2 Bft) 97,87 %
17.06.2021 20:58 30,4 C 28,9 C 26,1 C 58 % 1011,2 hPa 0,0 l/m 0 min 0 min 27 W/m 6,4 km/h (2 Bft) 95,65 %
17.06.2021 20:56 30,5 C 28,9 C 26,1 C 58 % 1011,2 hPa 0,0 l/m 0 min 0 min 26 W/m 3,2 km/h (1 Bft) 97,87 %
17.06.2021 20:54 30,5 C 28,9 C 26,7 C 58 % 1011,1 hPa 0,0 l/m 0 min 0 min 27 W/m 6,4 km/h (2 Bft) 97,87 %
17.06.2021 20:52 30,6 C 28,9 C 26,7 C 58 % 1011,2 hPa 0,0 l/m 0 min 0 min 28 W/m 6,4 km/h (2 Bft) 97,87 %
17.06.2021 20:50 30,7 C 28,9 C 26,7 C 58 % 1011,2 hPa 0,0 l/m 0 min 0 min 28 W/m 12,9 km/h (3 Bft) 95,74 %
17.06.2021 20:48 30,8 C 28,9 C 26,7 C 59 % 1011,1 hPa 0,0 l/m 0 min 0 min 31 W/m 6,4 km/h (2 Bft) 93,62 %
17.06.2021 20:46 30,8 C 29,4 C 26,7 C 59 % 1011,1 hPa 0,0 l/m 0 min 0 min 36 W/m 6,4 km/h (2 Bft) 95,65 %
17.06.2021 20:44 30,8 C 29,4 C 26,7 C 59 % 1011,1 hPa 0,0 l/m 0 min 0 min 39 W/m 6,4 km/h (2 Bft) 95,74 %
17.06.2021 20:42 30,9 C 29,4 C 26,7 C 58 % 1011,0 hPa 0,0 l/m 0 min 0 min 40 W/m 3,2 km/h (1 Bft) 91,49 %
17.06.2021 20:40 30,9 C 29,4 C 26,7 C 59 % 1011,1 hPa 0,0 l/m 0 min 0 min 43 W/m 0,0 km/h (0 Bft) 95,74 %
17.06.2021 20:38 31,0 C 29,4 C 26,7 C 58 % 1011,1 hPa 0,0 l/m 0 min 0 min 45 W/m 3,2 km/h (1 Bft) 95,74 %
17.06.2021 20:36 31,0 C 29,4 C 26,7 C 58 % 1011,1 hPa 0,0 l/m 0 min 0 min 47 W/m 0,0 km/h (0 Bft) 95,74 %
17.06.2021 20:34 31,1 C 29,4 C 27,3 C 58 % 1011,1 hPa 0,0 l/m 0 min 0 min 51 W/m 3,2 km/h (1 Bft) 95,65 %
17.06.2021 20:32 31,1 C 30,0 C 27,3 C 58 % 1011,1 hPa 0,0 l/m 0 min 0 min 56 W/m 3,2 km/h (1 Bft) 95,74 %
17.06.2021 20:30 31,3 C 30,0 C 27,3 C 58 % 1011,1 hPa 0,0 l/m 0 min 0 min 60 W/m 3,2 km/h (1 Bft) 95,74 %
17.06.2021 20:28 31,3 C 30,0 C 27,3 C 58 % 1011,1 hPa 0,0 l/m 0 min 0 min 64 W/m 3,2 km/h (1 Bft) 95,74 %
17.06.2021 20:26 31,3 C 30,0 C 27,3 C 57 % 1011,1 hPa 0,0 l/m 0 min 0 min 68 W/m 3,2 km/h (1 Bft) 93,62 %
17.06.2021 20:24 31,4 C 30,0 C 27,3 C 57 % 1011,1 hPa 0,0 l/m 0 min 0 min 72 W/m 6,4 km/h (2 Bft) 95,74 %
17.06.2021 20:22 31,4 C 30,0 C 27,3 C 57 % 1011,1 hPa 0,0 l/m 0 min 0 min 76 W/m 6,4 km/h (2 Bft) 93,48 %
17.06.2021 20:20 31,4 C 30,0 C 27,3 C 57 % 1011,1 hPa 0,0 l/m 0 min 0 min 81 W/m 3,2 km/h (1 Bft) 95,74 %
17.06.2021 20:18 31,5 C 30,0 C 27,3 C 57 % 1011,1 hPa 0,0 l/m 0 min 0 min 87 W/m 3,2 km/h (1 Bft) 95,74 %
17.06.2021 20:16 31,5 C 30,6 C 27,8 C 56 % 1011,1 hPa 0,0 l/m 0 min 0 min 95 W/m 6,4 km/h (2 Bft) 95,74 %
17.06.2021 20:14 31,5 C 30,6 C 27,8 C 56 % 1011,0 hPa 0,0 l/m 0 min 0 min 95 W/m 3,2 km/h (1 Bft) 97,87 %
17.06.2021 20:12 31,6 C 30,6 C 27,8 C 56 % 1011,0 hPa 0,0 l/m 0 min 0 min 96 W/m 3,2 km/h (1 Bft) 97,83 %
17.06.2021 20:10 31,6 C 30,6 C 27,8 C 57 % 1011,0 hPa 0,0 l/m 0 min 0 min 98 W/m 0,0 km/h (0 Bft) 95,74 %
17.06.2021 20:08 31,8 C 30,6 C 27,8 C 55 % 1011,0 hPa 0,0 l/m 0 min 0 min 93 W/m 3,2 km/h (1 Bft) 97,87 %
17.06.2021 20:06 31,8 C 30,6 C 27,8 C 56 % 1011,0 hPa 0,0 l/m 0 min 0 min 85 W/m 3,2 km/h (1 Bft) 97,87 %
17.06.2021 20:04 31,8 C 30,6 C 27,8 C 54 % 1010,9 hPa 0,0 l/m 0 min 0 min 79 W/m 6,4 km/h (2 Bft) 95,74 %
17.06.2021 20:02 31,9 C 30,6 C 27,8 C 54 % 1011,0 hPa 0,0 l/m 0 min 0 min 79 W/m 3,2 km/h (1 Bft) 95,74 %
17.06.2021 20:00 31,9 C 30,6 C 27,8 C 54 % 1011,0 hPa 0,0 l/m 0 min 0 min 81 W/m 6,4 km/h (2 Bft) 97,83 %
17.06.2021 19:58 32,0 C 30,6 C 27,8 C 54 % 1011,0 hPa 0,0 l/m 0 min 0 min 78 W/m 9,7 km/h (2 Bft) 93,62 %
17.06.2021 19:56 32,0 C 30,6 C 27,8 C 54 % 1011,0 hPa 0,0 l/m 0 min 0 min 87 W/m 3,2 km/h (1 Bft) 97,87 %
17.06.2021 19:54 32,1 C 30,6 C 27,8 C 54 % 1011,0 hPa 0,0 l/m 0 min 0 min 109 W/m 3,2 km/h (1 Bft) 100,00 %
17.06.2021 19:52 32,3 C 30,6 C 28,4 C 53 % 1010,9 hPa 0,0 l/m 0 min 0 min 111 W/m 9,7 km/h (2 Bft) 97,87 %
17.06.2021 19:50 32,3 C 31,1 C 28,4 C 53 % 1010,9 hPa 0,0 l/m 0 min 0 min 127 W/m 9,7 km/h (2 Bft) 100,00 %
17.06.2021 19:48 32,4 C 31,1 C 28,4 C 53 % 1010,8 hPa 0,0 l/m 0 min 0 min 125 W/m 6,4 km/h (2 Bft) 100,00 %
17.06.2021 19:46 32,4 C 31,1 C 28,4 C 52 % 1010,8 hPa 0,0 l/m 0 min 0 min 112 W/m 6,4 km/h (2 Bft) 100,00 %
17.06.2021 19:44 32,5 C 31,1 C 28,4 C 52 % 1010,8 hPa 0,0 l/m 2 min 0 min 156 W/m 12,9 km/h (3 Bft) 100,00 %
17.06.2021 19:42 32,6 C 31,7 C 28,9 C 52 % 1010,9 hPa 0,0 l/m 2 min 0 min 183 W/m 12,9 km/h (3 Bft) 100,00 %
17.06.2021 19:40 32,7 C 31,7 C 28,9 C 52 % 1010,8 hPa 0,0 l/m 2 min 0 min 169 W/m 6,4 km/h (2 Bft) 100,00 %
17.06.2021 19:38 32,8 C 31,7 C 28,9 C 52 % 1010,8 hPa 0,0 l/m 2 min 0 min 206 W/m 6,4 km/h (2 Bft) 100,00 %
17.06.2021 19:36 32,9 C 32,2 C 28,9 C 52 % 1010,9 hPa 0,0 l/m 2 min 0 min 242 W/m 6,4 km/h (2 Bft) 100,00 %
17.06.2021 19:34 33,0 C 32,2 C 28,9 C 51 % 1010,9 hPa 0,0 l/m 2 min 0 min 242 W/m 9,7 km/h (2 Bft) 100,00 %
17.06.2021 19:32 33,0 C 32,2 C 28,9 C 51 % 1010,8 hPa 0,0 l/m 2 min 0 min 199 W/m 6,4 km/h (2 Bft) 100,00 %
17.06.2021 19:30 33,1 C 32,2 C 28,9 C 51 % 1010,8 hPa 0,0 l/m 2 min 0 min 196 W/m 9,7 km/h (2 Bft) 100,00 %
17.06.2021 19:28 33,3 C 32,2 C 28,9 C 51 % 1010,8 hPa 0,0 l/m 0 min 0 min 161 W/m 12,9 km/h (3 Bft) 100,00 %
17.06.2021 19:26 33,4 C 32,2 C 29,5 C 51 % 1010,7 hPa 0,0 l/m 2 min 0 min 186 W/m 9,7 km/h (2 Bft) 100,00 %
17.06.2021 19:24 33,4 C 32,8 C 29,5 C 51 % 1010,7 hPa 0,0 l/m 2 min 0 min 186 W/m 12,9 km/h (3 Bft) 100,00 %
17.06.2021 19:22 33,4 C 32,8 C 29,5 C 51 % 1010,6 hPa 0,0 l/m 2 min 0 min 242 W/m 6,4 km/h (2 Bft) 100,00 %
17.06.2021 19:20 33,4 C 32,8 C 29,5 C 51 % 1010,6 hPa 0,0 l/m 2 min 0 min 280 W/m 6,4 km/h (2 Bft) 100,00 %
17.06.2021 19:18 33,5 C 33,3 C 29,5 C 51 % 1010,6 hPa 0,0 l/m 2 min 0 min 284 W/m 12,9 km/h (3 Bft) 100,00 %
17.06.2021 19:16 33,5 C 33,3 C 30,0 C 50 % 1010,6 hPa 0,0 l/m 2 min 0 min 296 W/m 12,9 km/h (3 Bft) 100,00 %
17.06.2021 19:14 33,5 C 33,3 C 30,0 C 50 % 1010,6 hPa 0,0 l/m 2 min 0 min 300 W/m 9,7 km/h (2 Bft) 100,00 %
17.06.2021 19:12 33,6 C 32,8 C 30,0 C 50 % 1010,6 hPa 0,0 l/m 2 min 0 min 278 W/m 12,9 km/h (3 Bft) 100,00 %
17.06.2021 19:10 33,7 C 33,3 C 30,0 C 50 % 1010,6 hPa 0,0 l/m 0 min 0 min 172 W/m 9,7 km/h (2 Bft) 100,00 %
17.06.2021 19:08 33,8 C 34,4 C 30,6 C 51 % 1010,6 hPa 0,0 l/m 2 min 0 min 243 W/m 12,9 km/h (3 Bft) 100,00 %
17.06.2021 19:06 33,8 C 34,4 C 30,6 C 51 % 1010,6 hPa 0,0 l/m 2 min 0 min 269 W/m 12,9 km/h (3 Bft) 100,00 %
17.06.2021 19:04 33,8 C 35,0 C 30,6 C 51 % 1010,6 hPa 0,0 l/m 2 min 0 min 293 W/m 6,4 km/h (2 Bft) 100,00 %
17.06.2021 19:02 33,8 C 35,0 C 30,6 C 51 % 1010,6 hPa 0,0 l/m 2 min 0 min 334 W/m 16,1 km/h (3 Bft) 100,00 %
17.06.2021 19:00 33,9 C 35,0 C 30,6 C 50 % 1010,6 hPa 0,0 l/m 2 min 0 min 285 W/m 6,4 km/h (2 Bft) 100,00 %
17.06.2021 18:58 34,0 C 35,0 C 30,6 C 50 % 1010,7 hPa 0,0 l/m 0 min 0 min 207 W/m 19,3 km/h (3 Bft) 100,00 %
17.06.2021 18:56 34,0 C 35,6 C 30,6 C 50 % 1010,6 hPa 0,0 l/m 2 min 0 min 270 W/m 9,7 km/h (2 Bft) 97,14 %
17.06.2021 18:54 34,0 C 36,1 C 30,6 C 51 % 1010,6 hPa 0,0 l/m 2 min 0 min 328 W/m 6,4 km/h (2 Bft) 100,00 %
17.06.2021 18:52 34,0 C 36,1 C 30,6 C 50 % 1010,6 hPa 0,0 l/m 2 min 0 min 343 W/m 12,9 km/h (3 Bft) 100,00 %
17.06.2021 18:50 34,0 C 36,1 C 30,6 C 50 % 1010,7 hPa 0,0 l/m 2 min 0 min 344 W/m 9,7 km/h (2 Bft) 100,00 %
17.06.2021 18:48 34,1 C 36,1 C 30,6 C 49 % 1010,7 hPa 0,0 l/m 2 min 0 min 355 W/m 16,1 km/h (3 Bft) 97,87 %
17.06.2021 18:46 34,2 C 36,1 C 30,6 C 49 % 1010,6 hPa 0,0 l/m 2 min 0 min 363 W/m 16,1 km/h (3 Bft) 100,00 %
17.06.2021 18:44 34,4 C 36,1 C 30,6 C 49 % 1010,6 hPa 0,0 l/m 2 min 0 min 370 W/m 9,7 km/h (2 Bft) 97,14 %
17.06.2021 18:42 34,4 C 36,1 C 30,6 C 49 % 1010,6 hPa 0,0 l/m 2 min 0 min 375 W/m 6,4 km/h (2 Bft) 98,31 %
17.06.2021 18:40 34,5 C 36,7 C 30,6 C 49 % 1010,6 hPa 0,0 l/m 2 min 0 min 383 W/m 12,9 km/h (3 Bft) 97,14 %
17.06.2021 18:38 34,7 C 36,7 C 31,1 C 49 % 1010,6 hPa 0,0 l/m 2 min 0 min 390 W/m 9,7 km/h (2 Bft) 97,87 %
17.06.2021 18:36 34,8 C 37,2 C 31,1 C 50 % 1010,6 hPa 0,0 l/m 2 min 0 min 394 W/m 9,7 km/h (2 Bft) 93,62 %
17.06.2021 18:34 34,8 C 37,2 C 31,1 C 50 % 1010,5 hPa 0,0 l/m 2 min 0 min 372 W/m 9,7 km/h (2 Bft) 97,87 %
17.06.2021 18:32 34,8 C 37,2 C 31,1 C 49 % 1010,5 hPa 0,0 l/m 2 min 0 min 379 W/m 9,7 km/h (2 Bft) 97,87 %
17.06.2021 18:30 34,8 C 37,2 C 31,1 C 50 % 1010,5 hPa 0,0 l/m 2 min 0 min 394 W/m 9,7 km/h (2 Bft) 95,74 %
17.06.2021 18:28 34,8 C 37,2 C 31,1 C 49 % 1010,6 hPa 0,0 l/m 2 min 0 min 416 W/m 12,9 km/h (3 Bft) 97,87 %
17.06.2021 18:26 34,8 C 37,2 C 31,1 C 49 % 1010,5 hPa 0,0 l/m 2 min 0 min 420 W/m 9,7 km/h (2 Bft) 95,65 %
17.06.2021 18:24 34,8 C 37,2 C 31,1 C 49 % 1010,5 hPa 0,0 l/m 2 min 0 min 423 W/m 9,7 km/h (2 Bft) 95,74 %
17.06.2021 18:22 34,8 C 37,2 C 31,7 C 48 % 1010,5 hPa 0,0 l/m 2 min 0 min 430 W/m 9,7 km/h (2 Bft) 95,74 %
17.06.2021 18:20 34,9 C 37,2 C 31,7 C 48 % 1010,5 hPa 0,0 l/m 2 min 0 min 436 W/m 12,9 km/h (3 Bft) 95,74 %
17.06.2021 18:18 34,9 C 37,2 C 31,7 C 48 % 1010,6 hPa 0,0 l/m 2 min 0 min 437 W/m 12,9 km/h (3 Bft) 93,62 %
17.06.2021 18:16 35,0 C 37,2 C 31,7 C 48 % 1010,5 hPa 0,0 l/m 2 min 0 min 431 W/m 12,9 km/h (3 Bft) 93,62 %
17.06.2021 18:14 35,0 C 37,8 C 31,7 C 48 % 1010,6 hPa 0,0 l/m 2 min 0 min 437 W/m 6,4 km/h (2 Bft) 95,65 %
17.06.2021 18:12 35,0 C 38,3 C 31,7 C 48 % 1010,6 hPa 0,0 l/m 2 min 0 min 460 W/m 12,9 km/h (3 Bft) 95,74 %
17.06.2021 18:10 35,1 C 37,8 C 31,7 C 49 % 1010,5 hPa 0,0 l/m 2 min 0 min 462 W/m 12,9 km/h (3 Bft) 95,74 %
17.06.2021 18:08 35,1 C 38,3 C 31,7 C 49 % 1010,6 hPa 0,0 l/m 4 min 0 min 473 W/m 9,7 km/h (2 Bft) 93,62 %
17.06.2021 18:04 35,0 C 37,8 C 31,7 C 48 % 1010,5 hPa 0,0 l/m 2 min 0 min 485 W/m 9,7 km/h (2 Bft) 95,92 %
17.06.2021 18:02 35,1 C 37,8 C 31,7 C 49 % 1010,5 hPa 0,0 l/m 2 min 0 min 493 W/m 12,9 km/h (3 Bft) 96,00 %
17.06.2021 18:00 35,2 C 37,2 C 31,7 C 49 % 1010,5 hPa 0,0 l/m 2 min 0 min 496 W/m 12,9 km/h (3 Bft) 95,74 %
17.06.2021 17:58 35,2 C 37,8 C 31,7 C 48 % 1010,4 hPa 0,0 l/m 2 min 0 min 508 W/m 12,9 km/h (3 Bft) 95,12 %
17.06.2021 17:56 35,3 C 37,2 C 31,7 C 48 % 1010,4 hPa 0,0 l/m 2 min 0 min 509 W/m 12,9 km/h (3 Bft) 95,74 %
17.06.2021 17:54 35,3 C 37,8 C 31,7 C 48 % 1010,3 hPa 0,0 l/m 2 min 0 min 498 W/m 12,9 km/h (3 Bft) 93,62 %
17.06.2021 17:52 35,2 C 37,8 C 31,7 C 47 % 1010,3 hPa 0,0 l/m 2 min 0 min 513 W/m 9,7 km/h (2 Bft) 95,74 %
17.06.2021 17:50 35,2 C 37,8 C 31,7 C 47 % 1010,3 hPa 0,0 l/m 2 min 0 min 507 W/m 6,4 km/h (2 Bft) 95,65 %
17.06.2021 17:48 35,3 C 37,8 C 31,7 C 47 % 1010,3 hPa 0,0 l/m 2 min 0 min 514 W/m 9,7 km/h (2 Bft) 95,74 %
17.06.2021 17:46 35,4 C 37,8 C 31,7 C 47 % 1010,3 hPa 0,0 l/m 2 min 0 min 520 W/m 9,7 km/h (2 Bft) 97,87 %
17.06.2021 17:44 35,4 C 37,8 C 31,7 C 46 % 1010,3 hPa 0,0 l/m 2 min 0 min 522 W/m 6,4 km/h (2 Bft) 97,87 %
17.06.2021 17:42 35,5 C 38,3 C 31,7 C 48 % 1010,3 hPa 0,0 l/m 2 min 0 min 522 W/m 9,7 km/h (2 Bft) 97,87 %
17.06.2021 17:40 35,5 C 38,3 C 31,7 C 47 % 1010,3 hPa 0,0 l/m 2 min 0 min 530 W/m 6,4 km/h (2 Bft) 100,00 %
17.06.2021 17:38 35,5 C 37,8 C 31,7 C 47 % 1010,3 hPa 0,0 l/m 2 min 0 min 541 W/m 9,7 km/h (2 Bft) 100,00 %
17.06.2021 17:36 35,5 C 37,8 C 31,7 C 47 % 1010,3 hPa 0,0 l/m 2 min 0 min 550 W/m 12,9 km/h (3 Bft) 97,87 %
17.06.2021 17:34 35,6 C 38,3 C 31,7 C 47 % 1010,4 hPa 0,0 l/m 2 min 0 min 560 W/m 9,7 km/h (2 Bft) 97,87 %
17.06.2021 17:32 35,6 C 38,3 C 31,7 C 47 % 1010,3 hPa 0,0 l/m 2 min 0 min 563 W/m 12,9 km/h (3 Bft) 100,00 %
17.06.2021 17:30 35,6 C 38,9 C 31,7 C 48 % 1010,3 hPa 0,0 l/m 2 min 0 min 567 W/m 16,1 km/h (3 Bft) 97,87 %
17.06.2021 17:28 35,6 C 38,9 C 31,7 C 47 % 1010,3 hPa 0,0 l/m 2 min 0 min 576 W/m 6,4 km/h (2 Bft) 100,00 %
17.06.2021 17:26 35,6 C 38,9 C 31,7 C 47 % 1010,4 hPa 0,0 l/m 2 min 0 min 581 W/m 9,7 km/h (2 Bft) 100,00 %
17.06.2021 17:24 35,6 C 38,3 C 31,7 C 47 % 1010,4 hPa 0,0 l/m 2 min 0 min 586 W/m 6,4 km/h (2 Bft) 97,87 %
17.06.2021 17:22 35,6 C 38,9 C 32,3 C 47 % 1010,3 hPa 0,0 l/m 2 min 0 min 589 W/m 16,1 km/h (3 Bft) 100,00 %
17.06.2021 17:20 35,6 C 38,9 C 32,3 C 48 % 1010,3 hPa 0,0 l/m 2 min 0 min 591 W/m 6,4 km/h (2 Bft) 100,00 %
17.06.2021 17:18 35,5 C 38,3 C 32,3 C 47 % 1010,3 hPa 0,0 l/m 2 min 0 min 595 W/m 12,9 km/h (3 Bft) 100,00 %
17.06.2021 17:16 35,6 C 38,3 C 32,3 C 46 % 1010,3 hPa 0,0 l/m 2 min 0 min 601 W/m 12,9 km/h (3 Bft) 97,83 %
17.06.2021 17:14 35,8 C 38,3 C 32,3 C 46 % 1010,3 hPa 0,0 l/m 2 min 0 min 605 W/m 12,9 km/h (3 Bft) 100,00 %
17.06.2021 17:12 35,9 C 38,9 C 32,3 C 46 % 1010,3 hPa 0,0 l/m 2 min 0 min 611 W/m 12,9 km/h (3 Bft) 100,00 %
17.06.2021 17:10 35,8 C 38,9 C 32,3 C 47 % 1010,4 hPa 0,0 l/m 2 min 0 min 617 W/m 12,9 km/h (3 Bft) 100,00 %
17.06.2021 17:08 35,8 C 39,4 C 32,3 C 46 % 1010,4 hPa 0,0 l/m 2 min 0 min 620 W/m 6,4 km/h (2 Bft) 100,00 %
17.06.2021 17:06 35,8 C 38,9 C 32,3 C 46 % 1010,3 hPa 0,0 l/m 2 min 0 min 622 W/m 12,9 km/h (3 Bft) 97,87 %
17.06.2021 17:04 35,8 C 38,9 C 32,3 C 46 % 1010,4 hPa 0,0 l/m 2 min 0 min 633 W/m 12,9 km/h (3 Bft) 97,83 %
17.06.2021 17:02 35,8 C 39,4 C 32,3 C 46 % 1010,3 hPa 0,0 l/m 2 min 0 min 642 W/m 12,9 km/h (3 Bft) 100,00 %
17.06.2021 17:00 35,8 C 39,4 C 32,3 C 46 % 1010,4 hPa 0,0 l/m 2 min 0 min 646 W/m 12,9 km/h (3 Bft) 100,00 %
17.06.2021 16:58 35,7 C 39,4 C 32,3 C 47 % 1010,4 hPa 0,0 l/m 2 min 0 min 648 W/m 6,4 km/h (2 Bft) 97,92 %
17.06.2021 16:56 35,5 C 39,4 C 32,3 C 48 % 1010,4 hPa 0,0 l/m 2 min 0 min 651 W/m 12,9 km/h (3 Bft) 95,74 %
17.06.2021 16:54 35,4 C 39,4 C 32,3 C 47 % 1010,4 hPa 0,0 l/m 2 min 0 min 656 W/m 6,4 km/h (2 Bft) 97,83 %
17.06.2021 16:52 35,3 C 39,4 C 32,3 C 47 % 1010,4 hPa 0,0 l/m 2 min 0 min 659 W/m 6,4 km/h (2 Bft) 97,87 %
17.06.2021 16:50 35,2 C 39,4 C 32,3 C 47 % 1010,4 hPa 0,0 l/m 2 min 0 min 668 W/m 6,4 km/h (2 Bft) 97,87 %
17.06.2021 16:48 35,1 C 38,9 C 32,3 C 47 % 1010,3 hPa 0,0 l/m 2 min 0 min 676 W/m 12,9 km/h (3 Bft) 97,87 %
17.06.2021 16:46 35,1 C 38,9 C 32,3 C 47 % 1010,4 hPa 0,0 l/m 2 min 0 min 679 W/m 16,1 km/h (3 Bft) 97,87 %
17.06.2021 16:44 35,1 C 38,3 C 32,3 C 47 % 1010,3 hPa 0,0 l/m 2 min 0 min 683 W/m 19,3 km/h (3 Bft) 97,83 %
17.06.2021 16:42 35,1 C 38,9 C 32,3 C 47 % 1010,3 hPa 0,0 l/m 2 min 0 min 687 W/m 16,1 km/h (3 Bft) 97,87 %
17.06.2021 16:40 35,0 C 38,9 C 32,3 C 47 % 1010,3 hPa 0,0 l/m 2 min 0 min 690 W/m 16,1 km/h (3 Bft) 97,96 %
17.06.2021 16:38 35,0 C 38,9 C 31,7 C 48 % 1010,3 hPa 0,0 l/m 2 min 0 min 692 W/m 3,2 km/h (1 Bft) 97,87 %
17.06.2021 16:36 35,0 C 38,3 C 31,7 C 47 % 1010,3 hPa 0,0 l/m 2 min 0 min 699 W/m 9,7 km/h (2 Bft) 95,74 %
17.06.2021 16:34 35,0 C 38,9 C 32,3 C 48 % 1010,3 hPa 0,0 l/m 2 min 0 min 703 W/m 6,4 km/h (2 Bft) 97,87 %
17.06.2021 16:32 35,0 C 38,3 C 32,3 C 48 % 1010,2 hPa 0,0 l/m 2 min 0 min 707 W/m 9,7 km/h (2 Bft) 97,87 %
17.06.2021 16:30 35,0 C 38,3 C 31,7 C 49 % 1010,2 hPa 0,0 l/m 2 min 0 min 710 W/m 16,1 km/h (3 Bft) 97,83 %
17.06.2021 16:28 34,9 C 38,9 C 32,3 C 48 % 1010,2 hPa 0,0 l/m 2 min 0 min 714 W/m 12,9 km/h (3 Bft) 97,87 %
17.06.2021 16:26 34,9 C 38,3 C 31,7 C 47 % 1010,2 hPa 0,0 l/m 2 min 0 min 716 W/m 9,7 km/h (2 Bft) 97,87 %
17.06.2021 16:24 34,9 C 37,8 C 31,7 C 48 % 1010,3 hPa 0,0 l/m 2 min 0 min 717 W/m 9,7 km/h (2 Bft) 97,87 %
17.06.2021 16:22 35,0 C 37,8 C 31,7 C 47 % 1010,2 hPa 0,0 l/m 2 min 0 min 719 W/m 9,7 km/h (2 Bft) 95,74 %
17.06.2021 16:20 35,0 C 38,3 C 31,7 C 48 % 1010,2 hPa 0,0 l/m 2 min 0 min 726 W/m 6,4 km/h (2 Bft) 97,87 %
17.06.2021 16:18 34,9 C 37,8 C 31,7 C 47 % 1010,2 hPa 0,0 l/m 2 min 0 min 729 W/m 16,1 km/h (3 Bft) 97,83 %
17.06.2021 16:16 35,0 C 38,3 C 32,3 C 48 % 1010,2 hPa 0,0 l/m 2 min 0 min 735 W/m 9,7 km/h (2 Bft) 97,87 %
17.06.2021 16:14 34,9 C 38,3 C 32,3 C 48 % 1010,3 hPa 0,0 l/m 2 min 0 min 736 W/m 12,9 km/h (3 Bft) 97,87 %
17.06.2021 16:12 34,9 C 37,8 C 31,7 C 47 % 1010,2 hPa 0,0 l/m 2 min 0 min 739 W/m 9,7 km/h (2 Bft) 95,74 %
17.06.2021 16:10 34,9 C 37,8 C 31,7 C 48 % 1010,2 hPa 0,0 l/m 2 min 0 min 740 W/m 9,7 km/h (2 Bft) 97,87 %
17.06.2021 16:08 34,9 C 37,8 C 31,7 C 47 % 1010,2 hPa 0,0 l/m 2 min 0 min 748 W/m 9,7 km/h (2 Bft) 97,83 %
17.06.2021 16:06 34,9 C 37,8 C 32,3 C 48 % 1010,2 hPa 0,0 l/m 2 min 0 min 757 W/m 16,1 km/h (3 Bft) 97,87 %
17.06.2021 16:04 34,9 C 37,2 C 31,7 C 48 % 1010,3 hPa 0,0 l/m 2 min 0 min 760 W/m 12,9 km/h (3 Bft) 93,62 %
17.06.2021 16:02 34,9 C 37,2 C 31,7 C 47 % 1010,2 hPa 0,0 l/m 2 min 0 min 765 W/m 9,7 km/h (2 Bft) 95,74 %
17.06.2021 16:00 35,0 C 37,2 C 31,7 C 46 % 1010,2 hPa 0,0 l/m 2 min 0 min 771 W/m 16,1 km/h (3 Bft) 95,74 %
17.06.2021 15:58 35,0 C 37,2 C 32,3 C 47 % 1010,2 hPa 0,0 l/m 2 min 0 min 775 W/m 6,4 km/h (2 Bft) 95,74 %
17.06.2021 15:56 35,1 C 36,7 C 32,3 C 46 % 1010,2 hPa 0,0 l/m 2 min 0 min 776 W/m 9,7 km/h (2 Bft) 95,65 %
17.06.2021 15:54 35,1 C 37,2 C 32,3 C 47 % 1010,2 hPa 0,0 l/m 2 min 0 min 773 W/m 6,4 km/h (2 Bft) 93,62 %
17.06.2021 15:52 35,1 C 37,2 C 32,3 C 47 % 1010,3 hPa 0,0 l/m 2 min 0 min 771 W/m 12,9 km/h (3 Bft) 95,74 %
17.06.2021 15:50 35,1 C 36,7 C 32,3 C 46 % 1010,2 hPa 0,0 l/m 2 min 0 min 764 W/m 12,9 km/h (3 Bft) 93,62 %
17.06.2021 15:48 35,2 C 36,7 C 32,3 C 46 % 1010,3 hPa 0,0 l/m 2 min 0 min 760 W/m 9,7 km/h (2 Bft) 93,62 %
17.06.2021 15:46 35,3 C 36,7 C 32,3 C 46 % 1010,3 hPa 0,0 l/m 2 min 0 min 746 W/m 12,9 km/h (3 Bft) 91,49 %
17.06.2021 15:44 35,3 C 37,2 C 32,8 C 47 % 1010,3 hPa 0,0 l/m 2 min 0 min 839 W/m 16,1 km/h (3 Bft) 91,30 %
17.06.2021 15:42 35,3 C 37,2 C 32,3 C 48 % 1010,3 hPa 0,0 l/m 2 min 0 min 841 W/m 12,9 km/h (3 Bft) 91,49 %
17.06.2021 15:40 35,2 C 37,2 C 32,3 C 47 % 1010,3 hPa 0,0 l/m 2 min 0 min 841 W/m 9,7 km/h (2 Bft) 93,62 %
17.06.2021 15:38 35,1 C 36,7 C 32,3 C 46 % 1010,3 hPa 0,0 l/m 2 min 0 min 818 W/m 16,1 km/h (3 Bft) 93,62 %
17.06.2021 15:36 35,1 C 37,2 C 32,3 C 47 % 1010,3 hPa 0,0 l/m 2 min 0 min 701 W/m 9,7 km/h (2 Bft) 93,62 %
17.06.2021 15:34 35,1 C 36,7 C 32,3 C 47 % 1010,3 hPa 0,0 l/m 2 min 0 min 701 W/m 25,7 km/h (4 Bft) 95,74 %
17.06.2021 15:32 35,0 C 37,2 C 32,8 C 47 % 1010,3 hPa 0,0 l/m 2 min 0 min 751 W/m 6,4 km/h (2 Bft) 93,48 %
17.06.2021 15:30 35,0 C 37,2 C 32,3 C 47 % 1010,3 hPa 0,0 l/m 2 min 0 min 795 W/m 9,7 km/h (2 Bft) 95,74 %
17.06.2021 15:28 34,9 C 37,2 C 32,3 C 47 % 1010,3 hPa 0,0 l/m 2 min 0 min 804 W/m 12,9 km/h (3 Bft) 95,74 %
17.06.2021 15:26 34,9 C 37,2 C 32,3 C 48 % 1010,3 hPa 0,0 l/m 2 min 0 min 800 W/m 16,1 km/h (3 Bft) 98,00 %
17.06.2021 15:24 34,8 C 37,2 C 32,3 C 48 % 1010,3 hPa 0,0 l/m 2 min 0 min 810 W/m 6,4 km/h (2 Bft) 95,24 %
17.06.2021 15:22 34,7 C 36,1 C 32,3 C 47 % 1010,3 hPa 0,0 l/m 2 min 0 min 822 W/m 12,9 km/h (3 Bft) 97,83 %
17.06.2021 15:20 34,8 C 36,1 C 32,3 C 47 % 1010,3 hPa 0,0 l/m 2 min 0 min 801 W/m 19,3 km/h (3 Bft) 97,96 %
17.06.2021 15:18 34,8 C 36,1 C 32,3 C 48 % 1010,2 hPa 0,0 l/m 2 min 0 min 790 W/m 22,5 km/h (4 Bft) 96,00 %
17.06.2021 15:16 34,8 C 36,1 C 31,7 C 48 % 1010,2 hPa 0,0 l/m 2 min 0 min 787 W/m 19,3 km/h (3 Bft) 95,24 %
17.06.2021 15:14 34,8 C 36,1 C 31,7 C 47 % 1010,2 hPa 0,0 l/m 2 min 0 min 787 W/m 12,9 km/h (3 Bft) 95,74 %
17.06.2021 15:12 34,9 C 37,2 C 32,3 C 47 % 1010,3 hPa 0,0 l/m 2 min 0 min 820 W/m 9,7 km/h (2 Bft) 97,96 %
17.06.2021 15:10 34,8 C 36,7 C 31,7 C 47 % 1010,3 hPa 0,0 l/m 2 min 0 min 847 W/m 9,7 km/h (2 Bft) 95,65 %
17.06.2021 15:08 34,8 C 36,1 C 31,7 C 47 % 1010,3 hPa 0,0 l/m 2 min 0 min 869 W/m 16,1 km/h (3 Bft) 97,87 %
17.06.2021 15:06 34,9 C 36,1 C 31,7 C 47 % 1010,3 hPa 0,0 l/m 2 min 0 min 865 W/m 9,7 km/h (2 Bft) 98,00 %
17.06.2021 15:04 35,0 C 36,1 C 31,7 C 46 % 1010,2 hPa 0,0 l/m 2 min 0 min 845 W/m 12,9 km/h (3 Bft) 100,00 %
17.06.2021 15:02 35,2 C 36,1 C 32,3 C 46 % 1010,2 hPa 0,0 l/m 2 min 0 min 824 W/m 19,3 km/h (3 Bft) 97,87 %
17.06.2021 15:00 35,3 C 37,2 C 32,3 C 47 % 1010,2 hPa 0,0 l/m 2 min 0 min 847 W/m 16,1 km/h (3 Bft) 100,00 %
17.06.2021 14:58 35,3 C 37,2 C 32,3 C 47 % 1010,2 hPa 0,0 l/m 2 min 0 min 856 W/m 12,9 km/h (3 Bft) 100,00 %
17.06.2021 14:56 35,2 C 37,2 C 32,8 C 48 % 1010,2 hPa 0,0 l/m 2 min 0 min 839 W/m 6,4 km/h (2 Bft) 100,00 %
17.06.2021 14:54 35,1 C 37,2 C 32,3 C 48 % 1010,2 hPa 0,0 l/m 2 min 0 min 826 W/m 9,7 km/h (2 Bft) 100,00 %
17.06.2021 14:52 35,1 C 36,7 C 32,8 C 47 % 1010,1 hPa 0,0 l/m 2 min 0 min 846 W/m 22,5 km/h (4 Bft) 100,00 %
17.06.2021 14:50 35,0 C 36,7 C 32,8 C 48 % 1010,1 hPa 0,0 l/m 2 min 0 min 850 W/m 12,9 km/h (3 Bft) 98,00 %
17.06.2021 14:48 35,0 C 36,7 C 32,3 C 48 % 1010,1 hPa 0,0 l/m 2 min 0 min 851 W/m 22,5 km/h (4 Bft) 100,00 %
17.06.2021 14:46 35,0 C 36,7 C 32,3 C 48 % 1010,1 hPa 0,0 l/m 2 min 0 min 862 W/m 16,1 km/h (3 Bft) 100,00 %
17.06.2021 14:44 35,0 C 36,7 C 32,3 C 47 % 1010,2 hPa 0,0 l/m 2 min 0 min 870 W/m 25,7 km/h (4 Bft) 100,00 %
17.06.2021 14:42 35,1 C 36,7 C 32,8 C 47 % 1010,2 hPa 0,0 l/m 2 min 0 min 877 W/m 19,3 km/h (3 Bft) 98,00 %
17.06.2021 14:40 35,1 C 37,2 C 32,8 C 48 % 1010,1 hPa 0,0 l/m 2 min 0 min 874 W/m 19,3 km/h (3 Bft) 100,00 %
17.06.2021 14:38 35,0 C 36,7 C 32,3 C 49 % 1010,2 hPa 0,0 l/m 2 min 0 min 874 W/m 12,9 km/h (3 Bft) 100,00 %
17.06.2021 14:36 34,9 C 36,7 C 32,8 C 49 % 1010,2 hPa 0,0 l/m 2 min 0 min 876 W/m 19,3 km/h (3 Bft) 100,00 %
17.06.2021 14:34 34,9 C 36,7 C 32,8 C 48 % 1010,2 hPa 0,0 l/m 2 min 0 min 864 W/m 12,9 km/h (3 Bft) 100,00 %
17.06.2021 14:32 34,8 C 36,1 C 32,3 C 48 % 1010,2 hPa 0,0 l/m 2 min 0 min 873 W/m 19,3 km/h (3 Bft) 100,00 %
17.06.2021 14:30 34,9 C 36,1 C 32,8 C 47 % 1010,2 hPa 0,0 l/m 2 min 0 min 892 W/m 22,5 km/h (4 Bft) 100,00 %
17.06.2021 14:28 35,0 C 36,7 C 32,8 C 48 % 1010,2 hPa 0,0 l/m 2 min 0 min 900 W/m 19,3 km/h (3 Bft) 100,00 %
17.06.2021 14:26 35,1 C 36,7 C 33,4 C 47 % 1010,2 hPa 0,0 l/m 2 min 0 min 904 W/m 22,5 km/h (4 Bft) 100,00 %
17.06.2021 14:24 35,2 C 37,2 C 33,4 C 48 % 1010,2 hPa 0,0 l/m 2 min 0 min 911 W/m 16,1 km/h (3 Bft) 100,00 %
17.06.2021 14:22 35,1 C 37,2 C 33,9 C 49 % 1010,2 hPa 0,0 l/m 2 min 0 min 946 W/m 12,9 km/h (3 Bft) 100,00 %
17.06.2021 14:20 34,9 C 36,7 C 33,9 C 48 % 1010,2 hPa 0,0 l/m 2 min 0 min 858 W/m 12,9 km/h (3 Bft) 100,00 %
17.06.2021 14:18 35,0 C 36,1 C 33,9 C 48 % 1010,2 hPa 0,0 l/m 2 min 0 min 575 W/m 19,3 km/h (3 Bft) 100,00 %
17.06.2021 14:16 35,0 C 36,7 C 33,9 C 49 % 1010,2 hPa 0,0 l/m 2 min 0 min 958 W/m 12,9 km/h (3 Bft) 97,96 %
17.06.2021 14:14 34,9 C 36,7 C 33,9 C 48 % 1010,3 hPa 0,0 l/m 2 min 0 min 958 W/m 9,7 km/h (2 Bft) 100,00 %
17.06.2021 14:12 34,9 C 36,7 C 34,5 C 49 % 1010,3 hPa 0,0 l/m 2 min 0 min 952 W/m 22,5 km/h (4 Bft) 100,00 %
17.06.2021 14:10 34,9 C 36,7 C 34,5 C 49 % 1010,3 hPa 0,0 l/m 2 min 0 min 932 W/m 16,1 km/h (3 Bft) 100,00 %
17.06.2021 14:08 34,8 C 36,7 C 35,0 C 49 % 1010,3 hPa 0,0 l/m 2 min 0 min 932 W/m 12,9 km/h (3 Bft) 100,00 %
17.06.2021 14:06 34,8 C 36,7 C 35,6 C 50 % 1010,3 hPa 0,0 l/m 2 min 0 min 932 W/m 16,1 km/h (3 Bft) 97,96 %
17.06.2021 14:04 34,7 C 36,7 C 36,1 C 49 % 1010,3 hPa 0,0 l/m 2 min 0 min 932 W/m 12,9 km/h (3 Bft) 100,00 %
17.06.2021 14:02 34,6 C 36,7 C 36,7 C 49 % 1010,3 hPa 0,0 l/m 2 min 0 min 897 W/m 12,9 km/h (3 Bft) 100,00 %
17.06.2021 14:00 34,6 C 36,7 C 37,8 C 50 % 1010,3 hPa 0,0 l/m 2 min 0 min 894 W/m 12,9 km/h (3 Bft) 100,00 %
17.06.2021 13:58 34,6 C 36,7 C 38,4 C 49 % 1010,3 hPa 0,0 l/m 2 min 0 min 950 W/m 12,9 km/h (3 Bft) 100,00 %
17.06.2021 13:56 34,5 C 36,7 C 39,5 C 50 % 1010,3 hPa 0,0 l/m 2 min 0 min 969 W/m 16,1 km/h (3 Bft) 100,00 %
17.06.2021 13:54 34,4 C 36,1 C 40,6 C 50 % 1010,2 hPa 0,0 l/m 2 min 0 min 991 W/m 16,1 km/h (3 Bft) 100,00 %
17.06.2021 13:52 34,3 C 35,6 C 41,7 C 50 % 1010,2 hPa 0,0 l/m 2 min 0 min 966 W/m 12,9 km/h (3 Bft) 100,00 %
17.06.2021 13:50 34,2 C 35,6 C 42,3 C 50 % 1010,3 hPa 0,0 l/m 2 min 0 min 967 W/m 16,1 km/h (3 Bft) 100,00 %
17.06.2021 13:48 34,1 C 35,6 C 42,3 C 50 % 1010,3 hPa 0,0 l/m 2 min 0 min 937 W/m 19,3 km/h (3 Bft) 100,00 %
17.06.2021 13:46 34,1 C 35,0 C 41,7 C 50 % 1010,3 hPa 0,0 l/m 2 min 0 min 901 W/m 16,1 km/h (3 Bft) 97,73 %
17.06.2021 13:44 34,1 C 35,0 C 41,7 C 50 % 1010,3 hPa 0,0 l/m 2 min 0 min 893 W/m 16,1 km/h (3 Bft) 97,87 %
17.06.2021 13:42 34,1 C 35,0 C 41,7 C 50 % 1010,3 hPa 0,0 l/m 2 min 0 min 838 W/m 22,5 km/h (4 Bft) 97,87 %
17.06.2021 13:40 34,1 C 35,0 C 41,7 C 50 % 1010,3 hPa 0,0 l/m 2 min 0 min 902 W/m 16,1 km/h (3 Bft) 97,87 %
17.06.2021 13:38 34,1 C 35,0 C 42,8 C 49 % 1010,3 hPa 0,0 l/m 2 min 0 min 884 W/m 19,3 km/h (3 Bft) 97,92 %
17.06.2021 13:36 34,2 C 35,0 C 42,8 C 49 % 1010,3 hPa 0,0 l/m 2 min 0 min 886 W/m 12,9 km/h (3 Bft) 95,92 %
17.06.2021 13:34 34,3 C 35,0 C 42,8 C 49 % 1010,3 hPa 0,0 l/m 2 min 0 min 904 W/m 22,5 km/h (4 Bft) 97,67 %
17.06.2021 13:32 34,3 C 35,0 C 42,8 C 49 % 1010,2 hPa 0,0 l/m 2 min 0 min 894 W/m 22,5 km/h (4 Bft) 95,74 %
17.06.2021 13:30 34,2 C 35,0 C 42,8 C 49 % 1010,2 hPa 0,0 l/m 2 min 0 min 886 W/m 16,1 km/h (3 Bft) 97,92 %
17.06.2021 13:28 34,1 C 35,0 C 42,8 C 50 % 1010,2 hPa 0,0 l/m 2 min 0 min 888 W/m 19,3 km/h (3 Bft) 96,00 %
17.06.2021 13:26 34,0 C 35,0 C 42,3 C 50 % 1010,1 hPa 0,0 l/m 2 min 0 min 886 W/m 12,9 km/h (3 Bft) 100,00 %
17.06.2021 13:24 34,0 C 35,0 C 42,3 C 51 % 1010,1 hPa 0,0 l/m 2 min 0 min 885 W/m 19,3 km/h (3 Bft) 95,74 %
17.06.2021 13:22 33,9 C 35,0 C 42,8 C 51 % 1010,1 hPa 0,0 l/m 2 min 0 min 886 W/m 12,9 km/h (3 Bft) 95,83 %
17.06.2021 13:20 33,8 C 34,4 C 41,7 C 51 % 1010,1 hPa 0,0 l/m 2 min 0 min 886 W/m 12,9 km/h (3 Bft) 98,00 %
17.06.2021 13:18 33,8 C 34,4 C 41,7 C 50 % 1010,1 hPa 0,0 l/m 2 min 0 min 885 W/m 12,9 km/h (3 Bft) 97,67 %
17.06.2021 13:16 33,7 C 33,9 C 41,1 C 51 % 1010,0 hPa 0,0 l/m 2 min 0 min 883 W/m 16,1 km/h (3 Bft) 97,87 %
17.06.2021 13:14 33,7 C 33,9 C 41,7 C 51 % 1010,0 hPa 0,0 l/m 2 min 0 min 886 W/m 19,3 km/h (3 Bft) 97,92 %
17.06.2021 13:12 33,6 C 33,9 C 41,1 C 51 % 1010,0 hPa 0,0 l/m 2 min 0 min 897 W/m 16,1 km/h (3 Bft) 95,92 %
17.06.2021 13:10 33,6 C 33,9 C 40,6 C 51 % 1010,0 hPa 0,0 l/m 2 min 0 min 899 W/m 16,1 km/h (3 Bft) 95,74 %
17.06.2021 13:08 33,5 C 33,9 C 40,0 C 51 % 1009,9 hPa 0,0 l/m 2 min 0 min 884 W/m 16,1 km/h (3 Bft) 97,67 %
17.06.2021 13:06 33,5 C 33,9 C 40,6 C 52 % 1009,9 hPa 0,0 l/m 2 min 0 min 894 W/m 12,9 km/h (3 Bft) 97,87 %
17.06.2021 13:04 33,4 C 33,9 C 41,1 C 52 % 1009,9 hPa 0,0 l/m 2 min 0 min 878 W/m 16,1 km/h (3 Bft) 95,83 %
17.06.2021 13:02 33,4 C 33,9 C 40,6 C 52 % 1009,9 hPa 0,0 l/m 2 min 0 min 885 W/m 16,1 km/h (3 Bft) 97,96 %
17.06.2021 13:00 33,3 C 33,9 C 40,6 C 52 % 1009,9 hPa 0,0 l/m 2 min 0 min 889 W/m 19,3 km/h (3 Bft) 90,70 %
17.06.2021 12:58 33,3 C 33,9 C 41,1 C 52 % 1009,9 hPa 0,0 l/m 2 min 0 min 883 W/m 12,9 km/h (3 Bft) 95,74 %
17.06.2021 12:56 33,3 C 33,9 C 41,1 C 52 % 1009,9 hPa 0,0 l/m 2 min 0 min 883 W/m 6,4 km/h (2 Bft) 93,75 %
17.06.2021 12:54 33,2 C 33,9 C 40,6 C 52 % 1009,8 hPa 0,0 l/m 2 min 0 min 884 W/m 19,3 km/h (3 Bft) 95,74 %
17.06.2021 12:52 33,1 C 33,9 C 40,6 C 53 % 1009,8 hPa 0,0 l/m 2 min 0 min 885 W/m 6,4 km/h (2 Bft) 97,96 %
17.06.2021 12:50 33,0 C 33,9 C 40,6 C 51 % 1009,8 hPa 0,0 l/m 2 min 0 min 883 W/m 6,4 km/h (2 Bft) 95,35 %
17.06.2021 12:48 33,0 C 33,9 C 40,6 C 51 % 1009,8 hPa 0,0 l/m 2 min 0 min 883 W/m 16,1 km/h (3 Bft) 95,74 %
17.06.2021 12:46 33,0 C 34,4 C 41,1 C 53 % 1009,8 hPa 0,0 l/m 2 min 0 min 885 W/m 9,7 km/h (2 Bft) 95,83 %
17.06.2021 12:44 32,9 C 33,9 C 40,6 C 53 % 1009,8 hPa 0,0 l/m 2 min 0 min 884 W/m 12,9 km/h (3 Bft) 96,00 %
17.06.2021 12:42 32,7 C 33,9 C 40,0 C 53 % 1009,8 hPa 0,0 l/m 2 min 0 min 884 W/m 9,7 km/h (2 Bft) 95,35 %
17.06.2021 12:40 32,6 C 33,9 C 39,5 C 54 % 1009,7 hPa 0,0 l/m 2 min 0 min 883 W/m 12,9 km/h (3 Bft) 95,65 %
17.06.2021 12:38 32,6 C 33,3 C 38,9 C 54 % 1009,7 hPa 0,0 l/m 2 min 0 min 877 W/m 9,7 km/h (2 Bft) 91,49 %
17.06.2021 12:36 32,5 C 33,3 C 38,4 C 53 % 1009,7 hPa 0,0 l/m 2 min 0 min 873 W/m 12,9 km/h (3 Bft) 95,74 %
17.06.2021 12:34 32,5 C 33,3 C 37,8 C 53 % 1009,7 hPa 0,0 l/m 2 min 0 min 873 W/m 12,9 km/h (3 Bft) 95,83 %
17.06.2021 12:32 32,5 C 33,3 C 37,8 C 54 % 1009,7 hPa 0,0 l/m 2 min 0 min 873 W/m 16,1 km/h (3 Bft) 94,00 %
17.06.2021 12:30 32,5 C 33,3 C 38,4 C 54 % 1009,8 hPa 0,0 l/m 2 min 0 min 872 W/m 19,3 km/h (3 Bft) 93,02 %
17.06.2021 12:28 32,5 C 33,9 C 38,4 C 55 % 1009,8 hPa 0,0 l/m 2 min 0 min 868 W/m 16,1 km/h (3 Bft) 95,65 %
17.06.2021 12:26 32,4 C 33,9 C 37,8 C 54 % 1009,9 hPa 0,0 l/m 2 min 0 min 865 W/m 16,1 km/h (3 Bft) 95,83 %
17.06.2021 12:24 32,4 C 33,9 C 36,7 C 55 % 1009,9 hPa 0,0 l/m 2 min 0 min 863 W/m 9,7 km/h (2 Bft) 98,00 %
17.06.2021 12:22 32,3 C 33,3 C 36,1 C 54 % 1009,8 hPa 0,0 l/m 2 min 0 min 862 W/m 16,1 km/h (3 Bft) 93,02 %
17.06.2021 12:20 32,3 C 33,3 C 36,1 C 54 % 1009,9 hPa 0,0 l/m 2 min 0 min 859 W/m 6,4 km/h (2 Bft) 95,74 %
17.06.2021 12:18 32,3 C 32,8 C 35,0 C 53 % 1009,9 hPa 0,0 l/m 2 min 0 min 855 W/m 12,9 km/h (3 Bft) 97,92 %
17.06.2021 12:16 32,3 C 32,8 C 33,9 C 52 % 1010,0 hPa 0,0 l/m 2 min 0 min 854 W/m 12,9 km/h (3 Bft) 98,00 %
17.06.2021 12:14 32,3 C 33,3 C 33,4 C 52 % 1010,0 hPa 0,0 l/m 2 min 0 min 852 W/m 16,1 km/h (3 Bft) 100,00 %
17.06.2021 12:12 32,3 C 33,9 C 32,3 C 53 % 1010,0 hPa 0,0 l/m 2 min 0 min 850 W/m 6,4 km/h (2 Bft) 100,00 %
17.06.2021 12:10 32,2 C 33,9 C 31,7 C 52 % 1010,1 hPa 0,0 l/m 2 min 0 min 849 W/m 9,7 km/h (2 Bft) 100,00 %
17.06.2021 12:08 32,1 C 33,9 C 32,3 C 53 % 1010,1 hPa 0,0 l/m 4 min 0 min 846 W/m 12,9 km/h (3 Bft) 100,00 %
17.06.2021 12:04 32,0 C 33,3 C 31,7 C 53 % 1010,1 hPa 0,0 l/m 2 min 0 min 843 W/m 16,1 km/h (3 Bft) 100,00 %
17.06.2021 12:02 32,0 C 33,9 C 32,3 C 54 % 1010,1 hPa 0,0 l/m 2 min 0 min 838 W/m 16,1 km/h (3 Bft) 97,87 %
17.06.2021 12:00 31,9 C 33,9 C 32,3 C 54 % 1010,1 hPa 0,0 l/m 2 min 0 min 843 W/m 9,7 km/h (2 Bft) 100,00 %
17.06.2021 11:58 31,9 C 33,3 C 32,8 C 53 % 1010,1 hPa 0,0 l/m 2 min 0 min 838 W/m 6,4 km/h (2 Bft) 100,00 %
17.06.2021 11:56 31,8 C 33,3 C 33,4 C 53 % 1010,1 hPa 0,0 l/m 2 min 0 min 835 W/m 9,7 km/h (2 Bft) 100,00 %
17.06.2021 11:54 31,8 C 32,8 C 33,9 C 53 % 1010,2 hPa 0,0 l/m 2 min 0 min 832 W/m 6,4 km/h (2 Bft) 100,00 %
17.06.2021 11:52 31,7 C 32,8 C 34,5 C 54 % 1010,2 hPa 0,0 l/m 2 min 0 min 831 W/m 12,9 km/h (3 Bft) 100,00 %
17.06.2021 11:50 31,7 C 32,8 C 34,5 C 53 % 1010,2 hPa 0,0 l/m 2 min 0 min 830 W/m 16,1 km/h (3 Bft) 100,00 %
17.06.2021 11:48 31,6 C 33,3 C 33,9 C 54 % 1010,3 hPa 0,0 l/m 2 min 0 min 831 W/m 16,1 km/h (3 Bft) 100,00 %
17.06.2021 11:46 31,6 C 33,3 C 33,9 C 53 % 1010,3 hPa 0,0 l/m 2 min 0 min 829 W/m 12,9 km/h (3 Bft) 97,87 %
17.06.2021 11:44 31,6 C 32,8 C 32,3 C 53 % 1010,2 hPa 0,0 l/m 2 min 0 min 828 W/m 12,9 km/h (3 Bft) 100,00 %
17.06.2021 11:42 31,5 C 33,3 C 31,1 C 54 % 1010,3 hPa 0,0 l/m 2 min 0 min 822 W/m 12,9 km/h (3 Bft) 100,00 %
17.06.2021 11:40 31,5 C 33,3 C 30,6 C 54 % 1010,3 hPa 0,0 l/m 2 min 0 min 815 W/m 12,9 km/h (3 Bft) 100,00 %
17.06.2021 11:38 31,4 C 33,3 C 30,6 C 55 % 1010,3 hPa 0,0 l/m 2 min 0 min 810 W/m 6,4 km/h (2 Bft) 100,00 %
17.06.2021 11:36 31,4 C 33,3 C 30,0 C 55 % 1010,3 hPa 0,0 l/m 2 min 0 min 805 W/m 9,7 km/h (2 Bft) 95,92 %
17.06.2021 11:34 31,3 C 32,8 C 30,0 C 55 % 1010,3 hPa 0,0 l/m 2 min 0 min 802 W/m 16,1 km/h (3 Bft) 98,00 %
17.06.2021 11:32 31,2 C 32,8 C 30,6 C 55 % 1010,3 hPa 0,0 l/m 2 min 0 min 797 W/m 6,4 km/h (2 Bft) 97,62 %
17.06.2021 11:30 31,1 C 32,8 C 31,7 C 55 % 1010,4 hPa 0,0 l/m 2 min 0 min 789 W/m 12,9 km/h (3 Bft) 97,83 %
17.06.2021 11:28 31,0 C 32,8 C 32,3 C 54 % 1010,4 hPa 0,0 l/m 2 min 0 min 789 W/m 9,7 km/h (2 Bft) 97,96 %
17.06.2021 11:26 30,9 C 32,8 C 31,7 C 54 % 1010,4 hPa 0,0 l/m 2 min 0 min 788 W/m 3,2 km/h (1 Bft) 98,00 %
17.06.2021 11:24 30,9 C 32,8 C 31,1 C 54 % 1010,5 hPa 0,0 l/m 2 min 0 min 784 W/m 19,3 km/h (3 Bft) 95,24 %
17.06.2021 11:22 30,8 C 32,8 C 30,6 C 54 % 1010,4 hPa 0,0 l/m 2 min 0 min 779 W/m 12,9 km/h (3 Bft) 97,87 %
17.06.2021 11:20 30,8 C 33,3 C 30,6 C 54 % 1010,5 hPa 0,0 l/m 2 min 0 min 777 W/m 12,9 km/h (3 Bft) 97,96 %
17.06.2021 11:18 30,8 C 32,8 C 31,1 C 54 % 1010,4 hPa 0,0 l/m 2 min 0 min 772 W/m 9,7 km/h (2 Bft) 98,00 %
17.06.2021 11:16 30,7 C 32,8 C 31,7 C 54 % 1010,5 hPa 0,0 l/m 2 min 0 min 770 W/m 12,9 km/h (3 Bft) 97,56 %
17.06.2021 11:14 30,6 C 32,8 C 32,3 C 54 % 1010,6 hPa 0,0 l/m 2 min 0 min 766 W/m 9,7 km/h (2 Bft) 97,87 %
17.06.2021 11:12 30,6 C 32,8 C 33,9 C 54 % 1010,7 hPa 0,0 l/m 2 min 0 min 762 W/m 12,9 km/h (3 Bft) 95,92 %
17.06.2021 11:10 30,5 C 32,8 C 34,5 C 55 % 1010,7 hPa 0,0 l/m 2 min 0 min 758 W/m 12,9 km/h (3 Bft) 97,87 %
17.06.2021 11:08 30,4 C 32,8 C 34,5 C 55 % 1010,7 hPa 0,0 l/m 2 min 0 min 756 W/m 6,4 km/h (2 Bft) 97,87 %
17.06.2021 11:06 30,3 C 32,2 C 33,9 C 55 % 1010,7 hPa 0,0 l/m 2 min 0 min 754 W/m 12,9 km/h (3 Bft) 97,96 %
17.06.2021 11:04 30,2 C 32,2 C 33,9 C 55 % 1010,6 hPa 0,0 l/m 2 min 0 min 748 W/m 12,9 km/h (3 Bft) 97,62 %
17.06.2021 11:02 30,1 C 31,7 C 34,5 C 55 % 1010,7 hPa 0,0 l/m 2 min 0 min 744 W/m 16,1 km/h (3 Bft) 97,87 %
17.06.2021 11:00 30,1 C 31,7 C 35,6 C 56 % 1010,7 hPa 0,0 l/m 2 min 0 min 743 W/m 16,1 km/h (3 Bft) 97,96 %
17.06.2021 10:58 30,0 C 31,7 C 35,6 C 55 % 1010,7 hPa 0,0 l/m 2 min 0 min 739 W/m 12,9 km/h (3 Bft) 98,00 %
17.06.2021 10:56 30,0 C 31,1 C 35,6 C 55 % 1010,7 hPa 0,0 l/m 2 min 0 min 744 W/m 16,1 km/h (3 Bft) 97,62 %
17.06.2021 10:54 30,0 C 31,1 C 35,6 C 55 % 1010,8 hPa 0,0 l/m 2 min 0 min 728 W/m 16,1 km/h (3 Bft) 97,83 %
17.06.2021 10:52 30,0 C 31,1 C 35,0 C 55 % 1010,8 hPa 0,0 l/m 2 min 0 min 726 W/m 22,5 km/h (4 Bft) 97,96 %
17.06.2021 10:50 30,0 C 31,1 C 35,0 C 56 % 1010,9 hPa 0,0 l/m 2 min 0 min 719 W/m 32,2 km/h (5 Bft) 100,00 %
17.06.2021 10:48 30,0 C 31,1 C 35,0 C 56 % 1010,9 hPa 0,0 l/m 2 min 0 min 716 W/m 25,7 km/h (4 Bft) 100,00 %
17.06.2021 10:46 29,9 C 31,1 C 35,0 C 56 % 1010,8 hPa 0,0 l/m 2 min 0 min 712 W/m 22,5 km/h (4 Bft) 100,00 %
17.06.2021 10:44 29,9 C 31,1 C 35,0 C 58 % 1010,8 hPa 0,0 l/m 2 min 0 min 709 W/m 25,7 km/h (4 Bft) 100,00 %
17.06.2021 10:42 29,8 C 31,1 C 35,6 C 59 % 1010,8 hPa 0,0 l/m 2 min 0 min 707 W/m 6,4 km/h (2 Bft) 97,96 %
17.06.2021 10:40 29,8 C 31,1 C 35,0 C 59 % 1010,8 hPa 0,0 l/m 2 min 0 min 700 W/m 16,1 km/h (3 Bft) 100,00 %
17.06.2021 10:38 29,7 C 31,1 C 35,0 C 59 % 1010,9 hPa 0,0 l/m 2 min 0 min 695 W/m 19,3 km/h (3 Bft) 100,00 %
17.06.2021 10:36 29,6 C 31,7 C 34,5 C 59 % 1011,0 hPa 0,0 l/m 2 min 0 min 692 W/m 12,9 km/h (3 Bft) 97,62 %
17.06.2021 10:34 29,5 C 31,7 C 34,5 C 58 % 1010,9 hPa 0,0 l/m 2 min 0 min 688 W/m 16,1 km/h (3 Bft) 100,00 %
17.06.2021 10:32 29,4 C 31,7 C 34,5 C 59 % 1010,9 hPa 0,0 l/m 2 min 0 min 682 W/m 12,9 km/h (3 Bft) 97,96 %
17.06.2021 10:30 29,3 C 31,7 C 34,5 C 60 % 1011,0 hPa 0,0 l/m 2 min 0 min 680 W/m 12,9 km/h (3 Bft) 100,00 %
17.06.2021 10:28 29,3 C 31,7 C 33,9 C 60 % 1011,0 hPa 0,0 l/m 2 min 0 min 678 W/m 19,3 km/h (3 Bft) 100,00 %
17.06.2021 10:26 29,2 C 31,7 C 33,4 C 59 % 1011,1 hPa 0,0 l/m 2 min 0 min 674 W/m 22,5 km/h (4 Bft) 100,00 %
17.06.2021 10:24 29,2 C 32,2 C 33,4 C 60 % 1011,0 hPa 0,0 l/m 2 min 0 min 671 W/m 16,1 km/h (3 Bft) 97,87 %
17.06.2021 10:22 29,1 C 32,2 C 32,8 C 60 % 1011,0 hPa 0,0 l/m 2 min 0 min 665 W/m 22,5 km/h (4 Bft) 100,00 %
17.06.2021 10:20 29,1 C 32,2 C 32,8 C 60 % 1011,0 hPa 0,0 l/m 2 min 0 min 660 W/m 16,1 km/h (3 Bft) 100,00 %
17.06.2021 10:18 29,1 C 31,7 C 32,3 C 61 % 1011,1 hPa 0,0 l/m 2 min 0 min 657 W/m 19,3 km/h (3 Bft) 97,56 %
17.06.2021 10:16 29,0 C 31,7 C 32,3 C 61 % 1011,0 hPa 0,0 l/m 2 min 0 min 654 W/m 12,9 km/h (3 Bft) 97,87 %
17.06.2021 10:14 28,9 C 31,7 C 32,3 C 61 % 1011,0 hPa 0,0 l/m 2 min 0 min 649 W/m 16,1 km/h (3 Bft) 97,92 %
17.06.2021 10:12 28,9 C 31,7 C 31,7 C 61 % 1011,0 hPa 0,0 l/m 2 min 0 min 643 W/m 12,9 km/h (3 Bft) 98,00 %
17.06.2021 10:10 28,8 C 31,1 C 31,7 C 61 % 1011,0 hPa 0,0 l/m 2 min 0 min 640 W/m 16,1 km/h (3 Bft) 97,87 %
17.06.2021 10:08 28,7 C 31,1 C 31,7 C 61 % 1011,0 hPa 0,0 l/m 2 min 0 min 635 W/m 16,1 km/h (3 Bft) 94,29 %
17.06.2021 10:06 28,6 C 31,1 C 31,1 C 61 % 1010,8 hPa 0,0 l/m 2 min 0 min 627 W/m 19,3 km/h (3 Bft) 98,11 %
17.06.2021 10:04 28,5 C 31,7 C 31,1 C 62 % 1010,8 hPa 0,0 l/m 2 min 0 min 625 W/m 6,4 km/h (2 Bft) 97,87 %
17.06.2021 10:02 28,4 C 31,1 C 30,6 C 62 % 1010,6 hPa 0,0 l/m 2 min 0 min 620 W/m 12,9 km/h (3 Bft) 95,92 %
17.06.2021 10:00 28,3 C 31,1 C 30,6 C 63 % 1010,6 hPa 0,0 l/m 2 min 0 min 617 W/m 16,1 km/h (3 Bft) 98,00 %
17.06.2021 09:58 28,1 C 31,1 C 30,0 C 63 % 1010,5 hPa 0,0 l/m 2 min 0 min 612 W/m 6,4 km/h (2 Bft) 95,24 %
17.06.2021 09:56 27,9 C 31,1 C 29,5 C 63 % 1010,5 hPa 0,0 l/m 2 min 0 min 607 W/m 12,9 km/h (3 Bft) 97,83 %
17.06.2021 09:54 27,8 C 30,6 C 28,9 C 63 % 1010,5 hPa 0,0 l/m 2 min 0 min 603 W/m 16,1 km/h (3 Bft) 97,96 %
17.06.2021 09:52 27,6 C 30,6 C 28,9 C 63 % 1010,5 hPa 0,0 l/m 2 min 0 min 598 W/m 12,9 km/h (3 Bft) 96,00 %
17.06.2021 09:50 27,5 C 30,6 C 28,4 C 64 % 1010,5 hPa 0,0 l/m 2 min 0 min 597 W/m 12,9 km/h (3 Bft) 96,30 %
17.06.2021 09:48 27,4 C 30,6 C 27,8 C 65 % 1010,4 hPa 0,0 l/m 2 min 0 min 598 W/m 12,9 km/h (3 Bft) 97,14 %
17.06.2021 09:46 27,3 C 30,0 C 27,3 C 65 % 1010,4 hPa 0,0 l/m 2 min 0 min 606 W/m 12,9 km/h (3 Bft) 95,74 %
17.06.2021 09:44 27,3 C 28,9 C 26,1 C 66 % 1010,5 hPa 0,0 l/m 2 min 0 min 601 W/m 6,4 km/h (2 Bft) 93,88 %
17.06.2021 09:42 27,2 C 27,8 C 25,6 C 65 % 1010,6 hPa 0,0 l/m 0 min 0 min 248 W/m 9,7 km/h (2 Bft) 95,74 %
17.06.2021 09:40 27,2 C 27,2 C 25,0 C 65 % 1010,7 hPa 0,0 l/m 0 min 0 min 165 W/m 6,4 km/h (2 Bft) 95,74 %
17.06.2021 09:38 27,2 C 27,8 C 25,6 C 66 % 1010,7 hPa 0,0 l/m 0 min 0 min 187 W/m 12,9 km/h (3 Bft) 93,75 %
17.06.2021 09:36 27,1 C 28,3 C 26,1 C 66 % 1010,8 hPa 0,0 l/m 0 min 0 min 212 W/m 12,9 km/h (3 Bft) 95,35 %
17.06.2021 09:34 27,1 C 30,0 C 26,7 C 66 % 1010,9 hPa 0,0 l/m 2 min 0 min 494 W/m 12,9 km/h (3 Bft) 97,87 %
17.06.2021 09:32 27,0 C 31,1 C 27,3 C 67 % 1010,8 hPa 0,0 l/m 2 min 0 min 626 W/m 12,9 km/h (3 Bft) 97,92 %
17.06.2021 09:30 26,8 C 31,1 C 27,3 C 68 % 1010,8 hPa 0,0 l/m 2 min 0 min 584 W/m 6,4 km/h (2 Bft) 97,96 %
17.06.2021 09:28 26,6 C 31,7 C 27,3 C 69 % 1010,9 hPa 0,0 l/m 2 min 0 min 680 W/m 12,9 km/h (3 Bft) 97,67 %
17.06.2021 09:26 26,4 C 31,1 C 26,7 C 69 % 1010,9 hPa 0,0 l/m 2 min 0 min 618 W/m 6,4 km/h (2 Bft) 97,87 %
17.06.2021 09:24 26,3 C 30,6 C 26,1 C 69 % 1010,8 hPa 0,0 l/m 2 min 0 min 573 W/m 6,4 km/h (2 Bft) 100,00 %
17.06.2021 09:22 26,1 C 30,6 C 25,6 C 69 % 1010,8 hPa 0,0 l/m 2 min 0 min 546 W/m 12,9 km/h (3 Bft) 98,00 %
17.06.2021 09:20 25,9 C 30,0 C 25,6 C 70 % 1010,7 hPa 0,0 l/m 2 min 0 min 542 W/m 16,1 km/h (3 Bft) 97,62 %
17.06.2021 09:18 25,8 C 28,9 C 25,0 C 70 % 1010,7 hPa 0,0 l/m 2 min 0 min 528 W/m 12,9 km/h (3 Bft) 97,87 %
17.06.2021 09:16 25,6 C 28,9 C 24,5 C 70 % 1010,7 hPa 0,0 l/m 2 min 0 min 511 W/m 12,9 km/h (3 Bft) 97,92 %
17.06.2021 09:14 25,5 C 27,8 C 23,9 C 70 % 1010,7 hPa 0,0 l/m 2 min 0 min 460 W/m 12,9 km/h (3 Bft) 98,00 %
17.06.2021 09:12 25,4 C 27,2 C 23,9 C 70 % 1010,7 hPa 0,0 l/m 2 min 0 min 391 W/m 12,9 km/h (3 Bft) 97,87 %
17.06.2021 09:10 25,3 C 26,7 C 23,4 C 71 % 1010,7 hPa 0,0 l/m 2 min 0 min 405 W/m 12,9 km/h (3 Bft) 100,00 %
17.06.2021 09:08 25,2 C 26,1 C 22,8 C 70 % 1010,7 hPa 0,0 l/m 0 min 0 min 259 W/m 16,1 km/h (3 Bft) 97,62 %
17.06.2021 09:06 25,1 C 26,1 C 22,8 C 70 % 1010,6 hPa 0,0 l/m 2 min 0 min 294 W/m 12,9 km/h (3 Bft) 97,87 %
17.06.2021 09:04 25,1 C 26,1 C 22,8 C 70 % 1010,6 hPa 0,0 l/m 2 min 0 min 448 W/m 9,7 km/h (2 Bft) 97,92 %
17.06.2021 09:02 25,1 C 25,6 C 22,8 C 70 % 1010,6 hPa 0,0 l/m 2 min 0 min 308 W/m 16,1 km/h (3 Bft) 98,00 %
17.06.2021 09:00 25,1 C 25,0 C 22,3 C 70 % 1010,6 hPa 0,0 l/m 0 min 0 min 246 W/m 22,5 km/h (4 Bft) 97,67 %
17.06.2021 08:58 25,1 C 25,0 C 22,8 C 70 % 1010,6 hPa 0,0 l/m 0 min 0 min 188 W/m 16,1 km/h (3 Bft) 97,83 %
17.06.2021 08:56 25,1 C 25,0 C 22,8 C 71 % 1010,6 hPa 0,0 l/m 0 min 0 min 179 W/m 12,9 km/h (3 Bft) 97,92 %
17.06.2021 08:54 25,0 C 25,0 C 22,8 C 71 % 1010,6 hPa 0,0 l/m 0 min 0 min 212 W/m 12,9 km/h (3 Bft) 98,00 %
17.06.2021 08:52 25,0 C 25,6 C 22,8 C 71 % 1010,7 hPa 0,0 l/m 2 min 0 min 304 W/m 16,1 km/h (3 Bft) 97,67 %
17.06.2021 08:50 24,9 C 25,6 C 22,8 C 71 % 1010,7 hPa 0,0 l/m 3 min 0 min 276 W/m 12,9 km/h (3 Bft) 100,00 %
17.06.2021 08:47 24,9 C 25,0 C 22,8 C 72 % 1010,6 hPa 0,0 l/m 1 min 0 min 254 W/m 16,1 km/h (3 Bft) 97,83 %
17.06.2021 08:46 24,8 C 25,0 C 22,8 C 72 % 1010,7 hPa 0,0 l/m 2 min 0 min 282 W/m 12,9 km/h (3 Bft) 97,87 %
17.06.2021 08:44 24,8 C 25,0 C 22,3 C 72 % 1010,6 hPa 0,0 l/m 0 min 0 min 240 W/m 16,1 km/h (3 Bft) 97,87 %
17.06.2021 08:42 24,7 C 25,0 C 22,3 C 72 % 1010,7 hPa 0,0 l/m 0 min 0 min 241 W/m 12,9 km/h (3 Bft) 97,87 %
17.06.2021 08:40 24,6 C 25,0 C 22,3 C 72 % 1010,7 hPa 0,0 l/m 2 min 0 min 321 W/m 12,9 km/h (3 Bft) 97,87 %
17.06.2021 08:38 24,6 C 24,4 C 21,7 C 72 % 1010,7 hPa 0,0 l/m 0 min 0 min 231 W/m 16,1 km/h (3 Bft) 97,87 %
17.06.2021 08:36 24,5 C 24,4 C 21,7 C 71 % 1010,7 hPa 0,0 l/m 2 min 0 min 255 W/m 19,3 km/h (3 Bft) 97,83 %
17.06.2021 08:34 24,5 C 24,4 C 21,7 C 71 % 1010,6 hPa 0,0 l/m 0 min 0 min 220 W/m 16,1 km/h (3 Bft) 97,87 %
17.06.2021 08:32 24,5 C 24,4 C 21,7 C 71 % 1010,7 hPa 0,0 l/m 0 min 0 min 196 W/m 16,1 km/h (3 Bft) 97,87 %
17.06.2021 08:30 24,5 C 23,9 C 21,7 C 71 % 1010,7 hPa 0,0 l/m 0 min 0 min 191 W/m 12,9 km/h (3 Bft) 97,87 %
17.06.2021 08:28 24,5 C 23,9 C 21,7 C 71 % 1010,7 hPa 0,0 l/m 0 min 0 min 187 W/m 16,1 km/h (3 Bft) 97,87 %
17.06.2021 08:26 24,5 C 23,9 C 21,7 C 71 % 1010,6 hPa 0,0 l/m 0 min 0 min 165 W/m 22,5 km/h (4 Bft) 97,87 %
17.06.2021 08:24 24,5 C 23,9 C 21,7 C 71 % 1010,6 hPa 0,0 l/m 0 min 0 min 163 W/m 16,1 km/h (3 Bft) 93,48 %
17.06.2021 08:22 24,5 C 23,9 C 21,7 C 71 % 1010,6 hPa 0,0 l/m 0 min 0 min 164 W/m 22,5 km/h (4 Bft) 97,87 %
17.06.2021 08:20 24,5 C 24,4 C 21,7 C 72 % 1010,5 hPa 0,0 l/m 0 min 0 min 163 W/m 12,9 km/h (3 Bft) 95,74 %
17.06.2021 08:18 24,4 C 24,4 C 21,7 C 72 % 1010,5 hPa 0,0 l/m 0 min 0 min 165 W/m 12,9 km/h (3 Bft) 97,87 %
17.06.2021 08:16 24,4 C 24,4 C 21,7 C 72 % 1010,5 hPa 0,0 l/m 0 min 0 min 169 W/m 12,9 km/h (3 Bft) 97,87 %
17.06.2021 08:14 24,3 C 25,0 C 21,7 C 73 % 1010,5 hPa 0,0 l/m 0 min 0 min 173 W/m 12,9 km/h (3 Bft) 97,87 %
17.06.2021 08:12 24,2 C 25,0 C 21,7 C 73 % 1010,5 hPa 0,0 l/m 2 min 0 min 213 W/m 9,7 km/h (2 Bft) 97,83 %
17.06.2021 08:10 24,1 C 25,0 C 21,7 C 73 % 1010,4 hPa 0,0 l/m 2 min 0 min 344 W/m 12,9 km/h (3 Bft) 97,87 %
17.06.2021 08:08 24,0 C 24,4 C 21,7 C 74 % 1010,4 hPa 0,0 l/m 2 min 0 min 339 W/m 12,9 km/h (3 Bft) 97,87 %
17.06.2021 08:06 23,9 C 23,9 C 21,7 C 74 % 1010,5 hPa 0,0 l/m 2 min 0 min 266 W/m 16,1 km/h (3 Bft) 97,87 %
17.06.2021 08:04 23,9 C 23,9 C 21,7 C 74 % 1010,5 hPa 0,0 l/m 2 min 0 min 250 W/m 6,4 km/h (2 Bft) 98,00 %
17.06.2021 08:02 23,8 C 23,9 C 21,1 C 74 % 1010,5 hPa 0,0 l/m 2 min 0 min 226 W/m 6,4 km/h (2 Bft) 97,62 %
17.06.2021 08:00 23,8 C 23,9 C 21,1 C 74 % 1010,5 hPa 0,0 l/m 0 min 0 min 189 W/m 12,9 km/h (3 Bft) 95,74 %
17.06.2021 07:58 23,7 C 23,9 C 21,1 C 75 % 1010,5 hPa 0,0 l/m 0 min 0 min 175 W/m 6,4 km/h (2 Bft) 95,65 %
17.06.2021 07:56 23,6 C 23,3 C 21,1 C 75 % 1010,4 hPa 0,0 l/m 0 min 0 min 165 W/m 6,4 km/h (2 Bft) 97,87 %
17.06.2021 07:54 23,6 C 23,3 C 21,1 C 75 % 1010,4 hPa 0,0 l/m 0 min 0 min 152 W/m 16,1 km/h (3 Bft) 95,74 %
17.06.2021 07:52 23,5 C 23,3 C 21,1 C 75 % 1010,5 hPa 0,0 l/m 0 min 0 min 138 W/m 6,4 km/h (2 Bft) 100,00 %
17.06.2021 07:50 23,5 C 23,3 C 21,1 C 75 % 1010,5 hPa 0,0 l/m 0 min 0 min 134 W/m 6,4 km/h (2 Bft) 97,87 %
17.06.2021 07:48 23,4 C 23,3 C 21,1 C 75 % 1010,4 hPa 0,0 l/m 0 min 0 min 138 W/m 6,4 km/h (2 Bft) 97,87 %
17.06.2021 07:46 23,4 C 23,3 C 21,1 C 76 % 1010,5 hPa 0,0 l/m 0 min 0 min 137 W/m 12,9 km/h (3 Bft) 100,00 %
17.06.2021 07:44 23,3 C 23,3 C 21,1 C 76 % 1010,4 hPa 0,0 l/m 0 min 0 min 145 W/m 12,9 km/h (3 Bft) 97,87 %
17.06.2021 07:42 23,2 C 23,3 C 20,6 C 76 % 1010,4 hPa 0,0 l/m 2 min 0 min 213 W/m 12,9 km/h (3 Bft) 97,87 %
17.06.2021 07:40 23,1 C 23,3 C 20,6 C 76 % 1010,4 hPa 0,0 l/m 2 min 0 min 258 W/m 9,7 km/h (2 Bft) 100,00 %
17.06.2021 07:38 23,0 C 23,3 C 20,6 C 76 % 1010,4 hPa 0,0 l/m 2 min 0 min 229 W/m 6,4 km/h (2 Bft) 95,74 %
17.06.2021 07:36 22,9 C 23,3 C 20,6 C 76 % 1010,4 hPa 0,0 l/m 2 min 0 min 162 W/m 6,4 km/h (2 Bft) 100,00 %
17.06.2021 07:34 22,8 C 22,8 C 20,6 C 77 % 1010,4 hPa 0,0 l/m 0 min 0 min 147 W/m 6,4 km/h (2 Bft) 97,83 %
17.06.2021 07:32 22,7 C 22,8 C 20,0 C 77 % 1010,4 hPa 0,0 l/m 0 min 0 min 130 W/m 6,4 km/h (2 Bft) 97,87 %
17.06.2021 07:30 22,6 C 22,8 C 20,0 C 77 % 1010,4 hPa 0,0 l/m 0 min 0 min 114 W/m 12,9 km/h (3 Bft) 97,87 %
17.06.2021 07:28 22,5 C 22,8 C 20,0 C 77 % 1010,3 hPa 0,0 l/m 0 min 0 min 99 W/m 12,9 km/h (3 Bft) 97,87 %
17.06.2021 07:26 22,4 C 22,8 C 20,0 C 77 % 1010,3 hPa 0,0 l/m 0 min 0 min 90 W/m 16,1 km/h (3 Bft) 95,74 %
17.06.2021 07:24 22,3 C 22,8 C 20,0 C 78 % 1010,3 hPa 0,0 l/m 0 min 0 min 85 W/m 6,4 km/h (2 Bft) 97,87 %
17.06.2021 07:22 22,2 C 22,2 C 20,0 C 79 % 1010,3 hPa 0,0 l/m 0 min 0 min 84 W/m 6,4 km/h (2 Bft) 97,83 %
17.06.2021 07:20 22,1 C 22,2 C 20,0 C 78 % 1010,2 hPa 0,0 l/m 0 min 0 min 85 W/m 6,4 km/h (2 Bft) 97,87 %
17.06.2021 07:18 22,1 C 22,2 C 20,0 C 78 % 1010,2 hPa 0,0 l/m 0 min 0 min 91 W/m 3,2 km/h (1 Bft) 97,87 %
17.06.2021 07:16 22,0 C 22,2 C 20,0 C 79 % 1010,3 hPa 0,0 l/m 0 min 0 min 98 W/m 6,4 km/h (2 Bft) 97,87 %
17.06.2021 07:14 21,9 C 22,2 C 19,5 C 79 % 1010,3 hPa 0,0 l/m 0 min 0 min 100 W/m 6,4 km/h (2 Bft) 97,87 %
17.06.2021 07:12 21,8 C 21,7 C 19,5 C 79 % 1010,3 hPa 0,0 l/m 0 min 0 min 95 W/m 3,2 km/h (1 Bft) 95,65 %
17.06.2021 07:10 21,8 C 21,7 C 19,5 C 79 % 1010,2 hPa 0,0 l/m 0 min 0 min 84 W/m 6,4 km/h (2 Bft) 95,74 %
17.06.2021 07:08 21,7 C 21,7 C 19,5 C 79 % 1010,2 hPa 0,0 l/m 0 min 0 min 72 W/m 6,4 km/h (2 Bft) 97,87 %
17.06.2021 07:06 21,6 C 21,7 C 19,5 C 79 % 1010,2 hPa 0,0 l/m 0 min 0 min 63 W/m 6,4 km/h (2 Bft) 97,87 %
17.06.2021 07:04 21,6 C 21,1 C 18,9 C 79 % 1010,2 hPa 0,0 l/m 0 min 0 min 58 W/m 12,9 km/h (3 Bft) 97,87 %
17.06.2021 07:02 21,5 C 21,1 C 18,9 C 79 % 1010,2 hPa 0,0 l/m 0 min 0 min 57 W/m 6,4 km/h (2 Bft) 97,92 %
17.06.2021 07:00 21,5 C 21,1 C 18,9 C 80 % 1010,2 hPa 0,0 l/m 0 min 0 min 51 W/m 6,4 km/h (2 Bft) 97,87 %
17.06.2021 06:58 21,4 C 21,1 C 18,9 C 80 % 1010,2 hPa 0,0 l/m 0 min 0 min 43 W/m 6,4 km/h (2 Bft) 100,00 %
17.06.2021 06:56 21,4 C 21,1 C 18,9 C 80 % 1010,2 hPa 0,0 l/m 0 min 0 min 39 W/m 6,4 km/h (2 Bft) 97,87 %
17.06.2021 06:54 21,3 C 21,1 C 18,9 C 80 % 1010,2 hPa 0,0 l/m 0 min 0 min 36 W/m 16,1 km/h (3 Bft) 97,87 %
17.06.2021 06:52 21,3 C 21,1 C 18,9 C 80 % 1010,2 hPa 0,0 l/m 0 min 0 min 34 W/m 9,7 km/h (2 Bft) 100,00 %
17.06.2021 06:50 21,2 C 20,6 C 18,9 C 80 % 1010,2 hPa 0,0 l/m 0 min 0 min 33 W/m 6,4 km/h (2 Bft) 100,00 %
17.06.2021 06:48 21,1 C 20,6 C 18,9 C 80 % 1010,1 hPa 0,0 l/m 0 min 0 min 32 W/m 6,4 km/h (2 Bft) 100,00 %
17.06.2021 06:46 21,1 C 20,6 C 18,9 C 80 % 1010,1 hPa 0,0 l/m 0 min 0 min 32 W/m 6,4 km/h (2 Bft) 100,00 %
17.06.2021 06:44 21,1 C 20,6 C 18,9 C 80 % 1010,1 hPa 0,0 l/m 0 min 0 min 34 W/m 6,4 km/h (2 Bft) 97,87 %
17.06.2021 06:42 21,1 C 20,6 C 18,9 C 80 % 1010,1 hPa 0,0 l/m 0 min 0 min 35 W/m 3,2 km/h (1 Bft) 100,00 %
17.06.2021 06:40 21,0 C 20,6 C 18,4 C 80 % 1010,2 hPa 0,0 l/m 0 min 0 min 34 W/m 6,4 km/h (2 Bft) 100,00 %
17.06.2021 06:38 21,0 C 20,6 C 18,4 C 80 % 1010,2 hPa 0,0 l/m 0 min 0 min 32 W/m 6,4 km/h (2 Bft) 100,00 %
17.06.2021 06:36 21,0 C 20,6 C 18,4 C 80 % 1010,1 hPa 0,0 l/m 0 min 0 min 30 W/m 3,2 km/h (1 Bft) 100,00 %
17.06.2021 06:34 21,0 C 20,6 C 18,4 C 80 % 1010,1 hPa 0,0 l/m 0 min 0 min 28 W/m 6,4 km/h (2 Bft) 95,74 %
17.06.2021 06:32 21,0 C 20,6 C 18,4 C 81 % 1010,1 hPa 0,0 l/m 0 min 0 min 28 W/m 6,4 km/h (2 Bft) 100,00 %
17.06.2021 06:30 20,9 C 20,6 C 18,4 C 81 % 1010,1 hPa 0,0 l/m 0 min 0 min 28 W/m 6,4 km/h (2 Bft) 100,00 %
17.06.2021 06:28 20,9 C 20,6 C 18,4 C 81 % 1010,1 hPa 0,0 l/m 0 min 0 min 27 W/m 12,9 km/h (3 Bft) 100,00 %
17.06.2021 06:26 20,9 C 20,6 C 18,4 C 81 % 1010,1 hPa 0,0 l/m 0 min 0 min 26 W/m 6,4 km/h (2 Bft) 100,00 %
17.06.2021 06:24 20,9 C 20,0 C 18,4 C 81 % 1010,1 hPa 0,0 l/m 0 min 0 min 25 W/m 3,2 km/h (1 Bft) 97,87 %
17.06.2021 06:22 20,9 C 20,0 C 18,4 C 81 % 1010,1 hPa 0,0 l/m 0 min 0 min 25 W/m 6,4 km/h (2 Bft) 97,87 %
17.06.2021 06:20 20,8 C 20,0 C 18,4 C 81 % 1010,1 hPa 0,0 l/m 0 min 0 min 23 W/m 12,9 km/h (3 Bft) 97,87 %
17.06.2021 06:18 20,8 C 20,0 C 18,4 C 81 % 1010,1 hPa 0,0 l/m 0 min 0 min 23 W/m 3,2 km/h (1 Bft) 100,00 %
17.06.2021 06:16 20,8 C 20,0 C 18,4 C 81 % 1010,1 hPa 0,0 l/m 0 min 0 min 23 W/m 3,2 km/h (1 Bft) 95,65 %
17.06.2021 06:14 20,8 C 20,0 C 18,4 C 81 % 1010,2 hPa 0,0 l/m 0 min 0 min 23 W/m 6,4 km/h (2 Bft) 97,87 %
17.06.2021 06:12 20,8 C 20,0 C 18,4 C 81 % 1010,2 hPa 0,0 l/m 0 min 0 min 23 W/m 6,4 km/h (2 Bft) 95,74 %
17.06.2021 06:10 20,8 C 20,0 C 18,4 C 81 % 1010,2 hPa 0,0 l/m 0 min 0 min 21 W/m 6,4 km/h (2 Bft) 97,87 %
17.06.2021 06:08 20,8 C 20,0 C 18,4 C 81 % 1010,2 hPa 0,0 l/m 0 min 0 min 21 W/m 12,9 km/h (3 Bft) 97,85 %
17.06.2021 06:04 20,8 C 20,0 C 17,8 C 81 % 1010,2 hPa 0,0 l/m 0 min 0 min 20 W/m 6,4 km/h (2 Bft) 98,00 %
17.06.2021 06:02 20,8 C 20,0 C 17,8 C 81 % 1010,1 hPa 0,0 l/m 0 min 0 min 19 W/m 9,7 km/h (2 Bft) 97,67 %
17.06.2021 06:00 20,8 C 20,0 C 17,8 C 81 % 1010,2 hPa 0,0 l/m 0 min 0 min 19 W/m 3,2 km/h (1 Bft) 97,87 %
17.06.2021 05:58 20,8 C 20,0 C 17,8 C 81 % 1010,1 hPa 0,0 l/m 0 min 0 min 18 W/m 6,4 km/h (2 Bft) 97,87 %
17.06.2021 05:56 20,8 C 20,0 C 17,8 C 81 % 1010,1 hPa 0,0 l/m 0 min 0 min 17 W/m 3,2 km/h (1 Bft) 97,87 %
17.06.2021 05:54 20,8 C 20,0 C 17,8 C 81 % 1010,1 hPa 0,0 l/m 0 min 0 min 16 W/m 6,4 km/h (2 Bft) 97,87 %
17.06.2021 05:52 20,8 C 20,0 C 17,8 C 81 % 1010,1 hPa 0,0 l/m 0 min 0 min 15 W/m 3,2 km/h (1 Bft) 97,87 %
17.06.2021 05:50 20,8 C 20,0 C 17,8 C 81 % 1010,1 hPa 0,0 l/m 0 min 0 min 14 W/m 6,4 km/h (2 Bft) 95,65 %
17.06.2021 05:48 20,8 C 20,0 C 17,8 C 81 % 1010,1 hPa 0,0 l/m 0 min 0 min 14 W/m 6,4 km/h (2 Bft) 97,87 %
17.06.2021 05:46 20,8 C 20,0 C 17,8 C 81 % 1010,1 hPa 0,0 l/m 0 min 0 min 12 W/m 12,9 km/h (3 Bft) 93,62 %
17.06.2021 05:44 20,8 C 20,0 C 17,8 C 81 % 1010,2 hPa 0,0 l/m 0 min 0 min 12 W/m 6,4 km/h (2 Bft) 95,74 %
17.06.2021 05:42 20,8 C 20,0 C 17,8 C 80 % 1010,1 hPa 0,0 l/m 0 min 0 min 12 W/m 6,4 km/h (2 Bft) 93,62 %
17.06.2021 05:40 20,9 C 20,0 C 17,8 C 80 % 1010,1 hPa 0,0 l/m 0 min 0 min 11 W/m 12,9 km/h (3 Bft) 97,37 %
17.06.2021 05:38 20,9 C 20,0 C 17,8 C 80 % 1010,2 hPa 0,0 l/m 0 min 0 min 11 W/m 12,9 km/h (3 Bft) 95,74 %
17.06.2021 05:36 20,9 C 20,0 C 17,8 C 80 % 1010,2 hPa 0,0 l/m 0 min 0 min 10 W/m 6,4 km/h (2 Bft) 95,65 %
17.06.2021 05:34 20,9 C 20,0 C 17,8 C 80 % 1010,2 hPa 0,0 l/m 0 min 0 min 9 W/m 6,4 km/h (2 Bft) 91,49 %
17.06.2021 05:32 20,9 C 20,0 C 17,8 C 80 % 1010,2 hPa 0,0 l/m 0 min 0 min 7 W/m 12,9 km/h (3 Bft) 93,62 %
17.06.2021 05:30 20,9 C 20,0 C 17,8 C 80 % 1010,2 hPa 0,0 l/m 0 min 0 min 7 W/m 12,9 km/h (3 Bft) 93,62 %
17.06.2021 05:28 21,0 C 20,0 C 18,4 C 80 % 1010,2 hPa 0,0 l/m 0 min 0 min 6 W/m 6,4 km/h (2 Bft) 95,74 %
17.06.2021 05:26 21,0 C 20,0 C 18,4 C 80 % 1010,2 hPa 0,0 l/m 0 min 0 min 5 W/m 6,4 km/h (2 Bft) 95,65 %
17.06.2021 05:24 21,0 C 20,0 C 18,4 C 80 % 1010,2 hPa 0,0 l/m 0 min 0 min 5 W/m 6,4 km/h (2 Bft) 95,74 %
17.06.2021 05:22 21,0 C 20,0 C 18,4 C 80 % 1010,2 hPa 0,0 l/m 0 min 0 min 4 W/m 6,4 km/h (2 Bft) 93,62 %
17.06.2021 05:20 21,0 C 20,0 C 18,4 C 80 % 1010,1 hPa 0,0 l/m 0 min 0 min 0 W/m 6,4 km/h (2 Bft) 95,74 %
17.06.2021 05:18 21,0 C 20,0 C 18,4 C 80 % 1010,1 hPa 0,0 l/m 0 min 0 min 0 W/m 3,2 km/h (1 Bft) 95,74 %
17.06.2021 05:16 21,1 C 20,0 C 18,4 C 80 % 1010,1 hPa 0,0 l/m 0 min 0 min 0 W/m 6,4 km/h (2 Bft) 93,62 %
17.06.2021 05:14 21,1 C 20,0 C 18,4 C 80 % 1010,1 hPa 0,0 l/m 0 min 0 min 0 W/m 6,4 km/h (2 Bft) 95,65 %
17.06.2021 05:12 21,1 C 20,0 C 18,4 C 79 % 1010,1 hPa 0,0 l/m 0 min 0 min 0 W/m 6,4 km/h (2 Bft) 97,87 %
17.06.2021 05:10 21,2 C 20,0 C 18,4 C 79 % 1010,2 hPa 0,0 l/m 0 min 0 min 0 W/m 6,4 km/h (2 Bft) 98,15 %
17.06.2021 05:08 21,2 C 20,0 C 18,4 C 79 % 1010,1 hPa 0,0 l/m 0 min 0 min 0 W/m 3,2 km/h (1 Bft) 95,74 %
17.06.2021 05:06 21,2 C 20,0 C 18,4 C 79 % 1010,1 hPa 0,0 l/m 0 min 0 min 0 W/m 6,4 km/h (2 Bft) 97,83 %
17.06.2021 05:04 21,2 C 20,0 C 18,4 C 79 % 1010,2 hPa 0,0 l/m 0 min 0 min 0 W/m 6,4 km/h (2 Bft) 97,73 %
17.06.2021 05:02 21,3 C 20,0 C 18,4 C 79 % 1010,1 hPa 0,0 l/m 0 min 0 min 0 W/m 6,4 km/h (2 Bft) 95,65 %
17.06.2021 05:00 21,3 C 20,0 C 18,4 C 79 % 1010,2 hPa 0,0 l/m 0 min 0 min 0 W/m 6,4 km/h (2 Bft) 95,74 %
_ Min-Zeit 05:42 05:00 05:30 15:02 12:32 - - - - 20:10 13:00
Minimum _ 20,8 C 20,0 C 17,8 C 46 % 1009,7 hPa - - - - 0,0 km/h (0 Bft) 90,70 %
_ Max-Zeit 17:12 16:50 13:22 04:30 01:02 05:00 12:08 05:00 13:54 10:50 06:18
Maximum _ 35,9 C 39,4 C 42,8 C 84 % 1013,2 hPa 0,0 l/m 4 min 0 min 991 W/m 32,2 km/h
S-SW (5 Bft)
100,00 %
Durchschnitt _ 28,1 C 28,3 C 26,2 C 65 % 1011,1 hPa #0,0 l/m #0 min. #0 min. 0 W/m 9,6 km/h (2 Bft) 97,43 %
© 2021 W. Hausmann